| time (UTC) | temp F | wind direction | speed knots | gust knots | rain 1hr in | rain 24hr in | rain mn in | humidity % | barometer mb |
| 20260906060834 | 71 | 342 | 0.0 | 1.7 | 0.00 | 0.07 | 0.01 | 88 | 1013.2 |
| 20260906060720 | 71 | 342 | 0.0 | 2.6 | 0.00 | 0.07 | 0.01 | 88 | 1013.3 |
| 20260906060632 | 71 | 343 | 0.0 | 2.6 | 0.00 | 0.07 | 0.01 | 87 | 1013.3 |
| 20260906060539 | 71 | 343 | 0.0 | 2.6 | 0.00 | 0.07 | 0.01 | 87 | 1013.3 |
| 20260906060426 | 71 | 343 | 0.0 | 2.6 | 0.00 | 0.07 | 0.01 | 88 | 1013.4 |
| 20260906060331 | 71 | 343 | 0.0 | 2.6 | 0.00 | 0.07 | 0.01 | 88 | 1013.4 |
| 20260906060242 | 71 | 343 | 0.0 | 2.6 | 0.00 | 0.07 | 0.01 | 87 | 1013.4 |
| 20260906060133 | 71 | 343 | 0.9 | 2.6 | 0.00 | 0.07 | 0.01 | 88 | 1013.5 |
| 20260906055938 | 71 | 343 | 0.9 | 2.6 | 0.00 | 0.07 | 0.01 | 87 | 1013.4 |
| 20260906055836 | 71 | 343 | 0.9 | 2.6 | 0.00 | 0.07 | 0.01 | 87 | 1013.5 |
| 20260906055724 | 71 | 343 | 0.9 | 2.6 | 0.00 | 0.07 | 0.01 | 87 | 1013.5 |
| 20260906055636 | 71 | 343 | 0.9 | 2.6 | 0.00 | 0.07 | 0.01 | 87 | 1013.5 |
| 20260906055536 | 71 | 343 | 0.9 | 2.6 | 0.00 | 0.07 | 0.01 | 87 | 1013.5 |
| 20260906055436 | 71 | 342 | 0.9 | 1.7 | 0.00 | 0.07 | 0.01 | 87 | 1013.6 |
| 20260906055327 | 71 | 343 | 0.9 | 1.7 | 0.00 | 0.07 | 0.01 | 87 | 1013.5 |
| 20260906055233 | 71 | 343 | 0.0 | 1.7 | 0.00 | 0.07 | 0.01 | 87 | 1013.5 |
| 20260906055129 | 71 | 342 | 0.0 | 1.7 | 0.00 | 0.07 | 0.01 | 87 | 1013.5 |
| 20260906055036 | 71 | 342 | 0.0 | 1.7 | 0.00 | 0.07 | 0.01 | 87 | 1013.5 |
| 20260906054929 | 72 | 342 | 0.0 | 1.7 | 0.00 | 0.07 | 0.01 | 87 | 1013.6 |
| 20260906054821 | 72 | 342 | 0.0 | 1.7 | 0.00 | 0.07 | 0.01 | 87 | 1013.6 |
| 20260906054740 | 72 | 343 | 0.0 | 1.7 | 0.00 | 0.07 | 0.01 | 87 | 1013.6 |
| 20260906054719 | 72 | 342 | 0.0 | 1.7 | 0.00 | 0.07 | 0.01 | 87 | 1013.7 |
| 20260906054548 | 72 | 342 | 0.0 | 1.7 | 0.00 | 0.07 | 0.01 | 87 | 1013.7 |
| 20260906054417 | 72 | 342 | 0.0 | 1.7 | 0.00 | 0.07 | 0.01 | 87 | 1013.8 |
| 20260906054328 | 72 | 342 | 0.0 | 2.6 | 0.00 | 0.07 | 0.01 | 87 | 1013.8 |
| 20260906054223 | 72 | 342 | 0.0 | 2.6 | 0.00 | 0.07 | 0.01 | 87 | 1013.8 |
| 20260906054137 | 72 | 342 | 0.9 | 2.6 | 0.00 | 0.07 | 0.01 | 87 | 1013.8 |
| 20260906054031 | 72 | 342 | 0.0 | 3.5 | 0.00 | 0.07 | 0.01 | 87 | 1013.8 |
| 20260906053920 | 72 | 341 | 0.0 | 3.5 | 0.00 | 0.07 | 0.01 | 87 | 1013.8 |
| 20260906053835 | 72 | 341 | 0.9 | 3.5 | 0.00 | 0.07 | 0.01 | 87 | 1013.8 |
| 20260906053736 | 72 | 341 | 0.9 | 3.5 | 0.00 | 0.07 | 0.01 | 87 | 1013.7 |
| 20260906053621 | 72 | 340 | 0.9 | 3.5 | 0.00 | 0.07 | 0.01 | 87 | 1013.8 |
| 20260906053524 | 72 | 340 | 0.9 | 3.5 | 0.00 | 0.07 | 0.01 | 87 | 1013.7 |
| 20260906053432 | 72 | 340 | 0.9 | 3.5 | 0.00 | 0.07 | 0.01 | 87 | 1013.8 |
| 20260906053336 | 72 | 340 | 0.9 | 3.5 | 0.00 | 0.07 | 0.01 | 87 | 1013.8 |
| 20260906053224 | 72 | 340 | 1.7 | 3.5 | 0.00 | 0.07 | 0.01 | 87 | 1013.8 |
| 20260906053134 | 72 | 339 | 1.7 | 3.5 | 0.00 | 0.07 | 0.01 | 87 | 1013.8 |
| 20260906052932 | 72 | 339 | 0.9 | 2.6 | 0.00 | 0.07 | 0.01 | 87 | 1013.8 |
| 20260906052820 | 72 | 284 | 0.9 | 2.6 | 0.00 | 0.07 | 0.01 | 87 | 1013.8 |
| 20260906052728 | 72 | 254 | 0.9 | 2.6 | 0.00 | 0.07 | 0.01 | 87 | 1013.9 |
| 20260906052640 | 72 | 254 | 0.9 | 2.6 | 0.00 | 0.07 | 0.01 | 87 | 1013.8 |
| 20260906052529 | 72 | 254 | 0.9 | 1.7 | 0.00 | 0.07 | 0.01 | 87 | 1013.8 |
| 20260906052422 | 72 | 254 | 0.9 | 1.7 | 0.00 | 0.07 | 0.01 | 87 | 1013.8 |
| 20260906052328 | 72 | 254 | 0.9 | 1.7 | 0.00 | 0.07 | 0.01 | 87 | 1013.9 |
| 20260906052230 | 72 | 254 | 0.0 | 1.7 | 0.00 | 0.07 | 0.01 | 87 | 1014.0 |
| 20260906052128 | 72 | 254 | 0.0 | 1.7 | 0.00 | 0.07 | 0.01 | 87 | 1014.0 |
| 20260906052034 | 72 | 254 | 0.0 | 0.0 | 0.00 | 0.07 | 0.01 | 87 | 1013.9 |
| 20260906051927 | 72 | 254 | 0.0 | 0.0 | 0.00 | 0.07 | 0.01 | 87 | 1014.0 |
| 20260906051822 | 72 | 254 | 0.0 | 0.0 | 0.00 | 0.07 | 0.01 | 87 | 1014.0 |
| 20260906051735 | 72 | 253 | 0.0 | 0.0 | 0.00 | 0.07 | 0.01 | 86 | 1014.0 |
| 20260906051647 | 73 | 254 | 0.0 | 0.9 | 0.00 | 0.07 | 0.01 | 86 | 1014.0 |
| 20260906051435 | 73 | 254 | 0.0 | 1.7 | 0.00 | 0.07 | 0.01 | 86 | 1014.0 |
| 20260906051323 | 73 | 254 | 0.0 | 2.6 | 0.00 | 0.07 | 0.01 | 86 | 1014.0 |
| 20260906051235 | 73 | 254 | 0.0 | 2.6 | 0.00 | 0.07 | 0.01 | 86 | 1014.0 |
| 20260906051117 | 73 | 254 | 0.0 | 2.6 | 0.00 | 0.07 | 0.01 | 86 | 1014.0 |
| 20260906051023 | 73 | 254 | 0.0 | 2.6 | 0.00 | 0.07 | 0.01 | 86 | 1014.0 |
| 20260906050925 | 73 | 254 | 0.0 | 2.6 | 0.01 | 0.07 | 0.01 | 86 | 1014.0 |
| 20260906050828 | 73 | 254 | 0.0 | 2.6 | 0.01 | 0.07 | 0.01 | 86 | 1014.1 |
| 20260906050741 | 73 | 254 | 0.0 | 2.6 | 0.01 | 0.07 | 0.01 | 86 | 1014.2 |
| 20260906050620 | 73 | 253 | 0.0 | 2.6 | 0.01 | 0.07 | 0.01 | 86 | 1014.2 |
| 20260906050529 | 73 | 254 | 0.9 | 2.6 | 0.01 | 0.07 | 0.01 | 86 | 1014.2 |
| 20260906050435 | 73 | 254 | 0.9 | 2.6 | 0.01 | 0.07 | 0.01 | 86 | 1014.2 |
| 20260906050331 | 73 | 253 | 0.0 | 2.6 | 0.01 | 0.07 | 0.01 | 86 | 1014.2 |
| 20260906050241 | 73 | 254 | 0.0 | 2.6 | 0.01 | 0.07 | 0.01 | 86 | 1014.2 |
| 20260906050226 | 73 | 254 | 0.0 | 2.6 | 0.01 | 0.07 | 0.01 | 86 | 1014.2 |
| 20260906050049 | 73 | 254 | 0.0 | 2.6 | 0.01 | 0.07 | 0.01 | 86 | 1014.2 |
| 20260906045926 | 73 | 254 | 0.0 | 2.6 | 0.01 | 0.07 | 0.01 | 86 | 1014.2 |
| 20260906045836 | 73 | 254 | 0.0 | 2.6 | 0.01 | 0.07 | 0.01 | 86 | 1014.2 |
| 20260906045725 | 73 | 254 | 0.0 | 2.6 | 0.01 | 0.07 | 0.01 | 86 | 1014.3 |
| 20260906045621 | 73 | 254 | 0.0 | 2.6 | 0.02 | 0.07 | 0.01 | 86 | 1014.3 |
| 20260906045543 | 73 | 254 | 0.9 | 2.6 | 0.02 | 0.07 | 0.01 | 86 | 1014.3 |
| 20260906045434 | 73 | 254 | 0.9 | 2.6 | 0.02 | 0.07 | 0.01 | 86 | 1014.3 |
| 20260906045323 | 73 | 252 | 0.0 | 1.7 | 0.02 | 0.07 | 0.01 | 86 | 1014.3 |
| 20260906045220 | 73 | 243 | 0.0 | 1.7 | 0.02 | 0.07 | 0.01 | 86 | 1014.2 |
| 20260906045140 | 73 | 242 | 0.0 | 1.7 | 0.02 | 0.07 | 0.01 | 86 | 1014.2 |
| 20260906045026 | 73 | 242 | 0.0 | 1.7 | 0.02 | 0.07 | 0.01 | 86 | 1014.1 |
| 20260906044930 | 73 | 242 | 0.0 | 1.7 | 0.03 | 0.07 | 0.01 | 86 | 1014.0 |
| 20260906044823 | 73 | 242 | 0.0 | 1.7 | 0.03 | 0.07 | 0.01 | 86 | 1014.0 |
| 20260906044721 | 73 | 244 | 0.0 | 1.7 | 0.03 | 0.07 | 0.01 | 86 | 1014.0 |
| 20260906044715 | 73 | 248 | 0.0 | 2.6 | 0.03 | 0.07 | 0.01 | 86 | 1014.0 |
| 20260906044625 | 73 | 249 | 0.0 | 2.6 | 0.03 | 0.07 | 0.01 | 86 | 1014.0 |
| 20260906044418 | 73 | 249 | 0.0 | 2.6 | 0.03 | 0.07 | 0.01 | 85 | 1014.2 |
| 20260906044323 | 73 | 249 | 0.0 | 2.6 | 0.03 | 0.07 | 0.01 | 86 | 1014.1 |
| 20260906044243 | 73 | 249 | 0.0 | 2.6 | 0.03 | 0.07 | 0.01 | 85 | 1014.1 |
| 20260906044140 | 73 | 249 | 0.0 | 2.6 | 0.03 | 0.07 | 0.01 | 85 | 1014.2 |
| 20260906044030 | 73 | 249 | 0.0 | 2.6 | 0.03 | 0.07 | 0.01 | 85 | 1014.1 |
| 20260906043934 | 73 | 249 | 0.0 | 2.6 | 0.03 | 0.07 | 0.01 | 85 | 1014.1 |
| 20260906043820 | 73 | 249 | 0.9 | 3.5 | 0.03 | 0.07 | 0.01 | 85 | 1014.0 |
| 20260906043736 | 73 | 249 | 1.7 | 3.5 | 0.03 | 0.07 | 0.01 | 85 | 1014.1 |
| 20260906043633 | 73 | 251 | 0.9 | 3.5 | 0.03 | 0.07 | 0.01 | 85 | 1014.1 |
| 20260906043523 | 73 | 252 | 0.0 | 3.5 | 0.03 | 0.07 | 0.01 | 85 | 1014.0 |
| 20260906043420 | 73 | 252 | 0.0 | 3.5 | 0.03 | 0.07 | 0.01 | 85 | 1014.0 |
| 20260906043332 | 73 | 252 | 0.0 | 3.5 | 0.03 | 0.07 | 0.01 | 85 | 1013.9 |
| 20260906043226 | 73 | 252 | 0.9 | 3.5 | 0.03 | 0.07 | 0.01 | 85 | 1013.9 |
| 20260906043152 | 73 | 252 | 1.7 | 3.5 | 0.03 | 0.07 | 0.01 | 85 | 1014.0 |
| 20260906043126 | 73 | 252 | 1.7 | 3.5 | 0.03 | 0.07 | 0.01 | 84 | 1014.0 |
| 20260906042928 | 73 | 257 | 2.6 | 3.5 | 0.03 | 0.07 | 0.01 | 84 | 1014.0 |
| 20260906042835 | 73 | 258 | 1.7 | 3.5 | 0.03 | 0.07 | 0.01 | 84 | 1014.0 |
| 20260906042730 | 73 | 261 | 1.7 | 3.5 | 0.03 | 0.07 | 0.01 | 84 | 1014.1 |
| 20260906042640 | 73 | 340 | 1.7 | 3.5 | 0.03 | 0.07 | 0.01 | 84 | 1014.0 |
| 20260906042531 | 73 | 340 | 1.7 | 3.5 | 0.03 | 0.07 | 0.01 | 84 | 1014.1 |
| 20260906042435 | 73 | 351 | 0.9 | 2.6 | 0.03 | 0.07 | 0.01 | 84 | 1014.0 |
| 20260906042340 | 73 | 355 | 0.9 | 1.7 | 0.03 | 0.07 | 0.01 | 84 | 1014.0 |
| 20260906042240 | 73 | 355 | 0.0 | 1.7 | 0.03 | 0.07 | 0.01 | 84 | 1014.0 |
| 20260906042126 | 73 | 355 | 0.0 | 2.6 | 0.03 | 0.07 | 0.01 | 84 | 1013.9 |
| 20260906042019 | 73 | 355 | 0.0 | 2.6 | 0.03 | 0.07 | 0.01 | 83 | 1013.9 |
| 20260906041926 | 73 | 355 | 0.0 | 2.6 | 0.03 | 0.07 | 0.01 | 83 | 1013.9 |
| 20260906041825 | 73 | 355 | 0.0 | 2.6 | 0.03 | 0.07 | 0.01 | 83 | 1013.8 |
| 20260906041732 | 73 | 355 | 0.0 | 2.6 | 0.03 | 0.07 | 0.01 | 83 | 1013.8 |
| 20260906041719 | 73 | 355 | 0.0 | 2.6 | 0.03 | 0.07 | 0.01 | 83 | 1013.7 |
| 20260906041632 | 74 | 355 | 0.0 | 2.6 | 0.03 | 0.07 | 0.01 | 83 | 1013.8 |
| 20260906041434 | 74 | 355 | 0.9 | 2.6 | 0.03 | 0.07 | 0.01 | 83 | 1013.8 |
| 20260906041319 | 74 | 355 | 0.9 | 3.5 | 0.03 | 0.07 | 0.01 | 83 | 1013.9 |
| 20260906041243 | 74 | 355 | 0.9 | 4.3 | 0.03 | 0.07 | 0.01 | 83 | 1013.9 |
| 20260906041140 | 74 | 350 | 1.7 | 4.3 | 0.03 | 0.07 | 0.01 | 83 | 1014.0 |
| 20260906041024 | 74 | 351 | 0.9 | 4.3 | 0.02 | 0.06 | 0.00 | 83 | 1014.0 |
| 20260906040927 | 74 | 355 | 0.9 | 4.3 | 0.02 | 0.06 | 0.00 | 82 | 1014.0 |
| 20260906040825 | 74 | 355 | 0.0 | 4.3 | 0.02 | 0.06 | 0.00 | 82 | 1014.0 |
| 20260906040739 | 74 | 355 | 0.9 | 4.3 | 0.02 | 0.06 | 0.00 | 82 | 1013.9 |
| 20260906040622 | 74 | 355 | 0.9 | 4.3 | 0.02 | 0.06 | 0.00 | 82 | 1014.0 |
| 20260906040517 | 74 | 355 | 1.7 | 4.3 | 0.02 | 0.06 | 0.00 | 82 | 1013.9 |
| 20260906040430 | 74 | 355 | 2.6 | 4.3 | 0.02 | 0.06 | 0.00 | 82 | 1014.0 |
| 20260906040337 | 74 | 355 | 2.6 | 4.3 | 0.02 | 0.06 | 0.00 | 82 | 1014.0 |
| 20260906040240 | 74 | 355 | 2.6 | 4.3 | 0.02 | 0.06 | 0.00 | 82 | 1014.0 |
| 20260906040144 | 74 | 75 | 1.7 | 3.5 | 0.02 | 0.06 | 0.00 | 82 | 1014.1 |
| 20260906040131 | 74 | 76 | 1.7 | 3.5 | 0.02 | 0.06 | 0.00 | 82 | 1014.0 |
| 20260906035944 | 74 | 78 | 1.7 | 3.5 | 0.02 | 0.06 | 0.06 | 81 | 1014.0 |
| 20260906035841 | 74 | 79 | 1.7 | 3.5 | 0.02 | 0.06 | 0.06 | 81 | 1014.0 |
| 20260906035734 | 75 | 80 | 0.9 | 3.5 | 0.01 | 0.04 | 0.04 | 81 | 1014.0 |
| 20260906035617 | 75 | 80 | 0.9 | 2.6 | 0.01 | 0.04 | 0.04 | 81 | 1014.0 |
| 20260906035541 | 75 | 81 | 0.9 | 2.6 | 0.01 | 0.04 | 0.04 | 81 | 1014.0 |
| 20260906035426 | 75 | 81 | 0.9 | 2.6 | 0.01 | 0.04 | 0.04 | 81 | 1014.0 |
| 20260906035334 | 75 | 81 | 0.9 | 2.6 | 0.01 | 0.04 | 0.04 | 81 | 1014.0 |
| 20260906035229 | 75 | 82 | 0.9 | 2.6 | 0.01 | 0.04 | 0.04 | 81 | 1014.0 |
| 20260906035126 | 75 | 88 | 0.9 | 2.6 | 0.01 | 0.04 | 0.04 | 81 | 1014.0 |
| 20260906035022 | 75 | 114 | 0.0 | 2.6 | 0.00 | 0.04 | 0.04 | 81 | 1014.1 |
| 20260906034940 | 75 | 170 | 0.0 | 2.6 | 0.00 | 0.04 | 0.04 | 81 | 1014.2 |
| 20260906034834 | 75 | 171 | 0.9 | 1.7 | 0.00 | 0.04 | 0.04 | 81 | 1014.2 |
| 20260906034741 | 75 | 171 | 0.0 | 1.7 | 0.00 | 0.04 | 0.04 | 81 | 1014.2 |
| 20260906034642 | 75 | 171 | 0.0 | 1.7 | 0.00 | 0.04 | 0.04 | 81 | 1014.2 |
| 20260906034631 | 75 | 171 | 0.0 | 1.7 | 0.00 | 0.04 | 0.04 | 81 | 1014.2 |
| 20260906034440 | 75 | 171 | 0.9 | 1.7 | 0.00 | 0.04 | 0.04 | 81 | 1014.3 |
| 20260906034326 | 75 | 171 | 0.9 | 1.7 | 0.00 | 0.04 | 0.04 | 81 | 1014.3 |
| 20260906034240 | 75 | 171 | 0.9 | 1.7 | 0.00 | 0.04 | 0.04 | 81 | 1014.3 |
| 20260906034142 | 75 | 171 | 0.0 | 1.7 | 0.00 | 0.04 | 0.04 | 81 | 1014.3 |
| 20260906034030 | 75 | 171 | 0.0 | 0.0 | 0.00 | 0.04 | 0.04 | 81 | 1014.4 |
| 20260906033927 | 75 | 171 | 0.0 | 0.0 | 0.00 | 0.04 | 0.04 | 81 | 1014.5 |
| 20260906033820 | 75 | 171 | 0.0 | 0.0 | 0.00 | 0.04 | 0.04 | 81 | 1014.5 |
| 20260906033741 | 75 | 171 | 0.0 | 0.0 | 0.00 | 0.04 | 0.04 | 81 | 1014.5 |
| 20260906033640 | 75 | 171 | 0.0 | 0.0 | 0.00 | 0.04 | 0.04 | 81 | 1014.5 |
| 20260906033526 | 75 | 171 | 0.0 | 0.0 | 0.00 | 0.04 | 0.04 | 81 | 1014.5 |
| 20260906033420 | 75 | 171 | 0.0 | 0.0 | 0.00 | 0.04 | 0.04 | 81 | 1014.4 |
| 20260906033331 | 75 | 171 | 0.0 | 1.7 | 0.00 | 0.04 | 0.04 | 81 | 1014.4 |
| 20260906033230 | 75 | 171 | 0.0 | 1.7 | 0.00 | 0.04 | 0.04 | 81 | 1014.4 |
| 20260906033134 | 75 | 171 | 0.0 | 2.6 | 0.00 | 0.04 | 0.04 | 81 | 1014.5 |
| 20260906032940 | 75 | 171 | 0.0 | 2.6 | 0.00 | 0.04 | 0.04 | 81 | 1014.5 |
| 20260906032817 | 75 | 171 | 0.0 | 2.6 | 0.00 | 0.04 | 0.04 | 81 | 1014.5 |
| 20260906032724 | 75 | 171 | 0.0 | 2.6 | 0.00 | 0.04 | 0.04 | 81 | 1014.5 |
| 20260906032640 | 75 | 171 | 0.0 | 2.6 | 0.00 | 0.04 | 0.04 | 81 | 1014.5 |
| 20260906032535 | 75 | 171 | 0.0 | 2.6 | 0.00 | 0.04 | 0.04 | 81 | 1014.5 |
| 20260906032437 | 75 | 171 | 0.9 | 2.6 | 0.00 | 0.04 | 0.04 | 81 | 1014.5 |
| 20260906032324 | 74 | 171 | 0.9 | 2.6 | 0.00 | 0.04 | 0.04 | 81 | 1014.4 |
| 20260906032219 | 75 | 171 | 0.9 | 2.6 | 0.00 | 0.04 | 0.04 | 81 | 1014.5 |
| 20260906032128 | 74 | 171 | 0.0 | 2.6 | 0.00 | 0.04 | 0.04 | 81 | 1014.5 |
| 20260906032035 | 74 | 171 | 0.0 | 1.7 | 0.00 | 0.04 | 0.04 | 81 | 1014.5 |
| 20260906031927 | 74 | 170 | 0.0 | 1.7 | 0.00 | 0.04 | 0.04 | 81 | 1014.6 |
| 20260906031825 | 74 | 170 | 0.0 | 1.7 | 0.00 | 0.04 | 0.04 | 81 | 1014.5 |
| 20260906031730 | 75 | 170 | 0.0 | 1.7 | 0.00 | 0.04 | 0.04 | 81 | 1014.5 |
| 20260906031718 | 74 | 170 | 0.0 | 1.7 | 0.00 | 0.04 | 0.04 | 81 | 1014.5 |
| 20260906031628 | 74 | 170 | 0.0 | 1.7 | 0.00 | 0.04 | 0.04 | 81 | 1014.5 |
| 20260906031428 | 74 | 170 | 0.0 | 1.7 | 0.00 | 0.04 | 0.04 | 81 | 1014.5 |
| 20260906031333 | 75 | 171 | 0.0 | 1.7 | 0.00 | 0.04 | 0.04 | 81 | 1014.5 |
| 20260906031219 | 75 | 171 | 0.0 | 1.7 | 0.00 | 0.04 | 0.04 | 81 | 1014.5 |
| 20260906031132 | 75 | 171 | 0.9 | 1.7 | 0.00 | 0.04 | 0.04 | 81 | 1014.6 |
| 20260906031026 | 75 | 171 | 0.0 | 1.7 | 0.00 | 0.04 | 0.04 | 81 | 1014.6 |
| 20260906030941 | 75 | 171 | 0.0 | 2.6 | 0.00 | 0.04 | 0.04 | 81 | 1014.6 |
| 20260906030841 | 75 | 171 | 0.0 | 2.6 | 0.00 | 0.04 | 0.04 | 81 | 1014.7 |
| 20260906030736 | 75 | 171 | 0.0 | 2.6 | 0.00 | 0.04 | 0.04 | 81 | 1014.7 |
| 20260906030625 | 75 | 170 | 0.0 | 2.6 | 0.00 | 0.04 | 0.04 | 81 | 1014.7 |
| 20260906030539 | 75 | 170 | 0.0 | 2.6 | 0.00 | 0.04 | 0.04 | 81 | 1014.8 |
| 20260906030435 | 75 | 170 | 0.0 | 2.6 | 0.00 | 0.04 | 0.04 | 81 | 1014.8 |
| 20260906030323 | 75 | 170 | 0.0 | 2.6 | 0.00 | 0.04 | 0.04 | 81 | 1014.7 |
| 20260906030246 | 75 | 171 | 0.9 | 5.2 | 0.00 | 0.04 | 0.04 | 81 | 1014.7 |
| 20260906030127 | 75 | 171 | 0.9 | 6.1 | 0.00 | 0.04 | 0.04 | 81 | 1014.7 |
| 20260906025937 | 75 | 171 | 0.9 | 6.1 | 0.00 | 0.04 | 0.04 | 81 | 1014.7 |
| 20260906025824 | 75 | 171 | 0.9 | 6.1 | 0.00 | 0.04 | 0.04 | 81 | 1014.7 |
| 20260906025727 | 75 | 171 | 0.9 | 6.1 | 0.00 | 0.04 | 0.04 | 81 | 1014.7 |
| 20260906025640 | 75 | 171 | 0.9 | 6.1 | 0.00 | 0.04 | 0.04 | 81 | 1014.7 |
| 20260906025526 | 75 | 171 | 0.9 | 6.1 | 0.00 | 0.04 | 0.04 | 81 | 1014.7 |
| 20260906025423 | 75 | 171 | 1.7 | 6.1 | 0.00 | 0.04 | 0.04 | 81 | 1014.6 |
| 20260906025332 | 75 | 171 | 3.5 | 6.1 | 0.00 | 0.04 | 0.04 | 80 | 1014.6 |
| 20260906025219 | 75 | 173 | 4.3 | 6.1 | 0.00 | 0.04 | 0.04 | 80 | 1014.5 |
| 20260906025136 | 75 | 175 | 4.3 | 6.1 | 0.00 | 0.04 | 0.04 | 80 | 1014.5 |
| 20260906025041 | 75 | 163 | 3.5 | 6.1 | 0.00 | 0.04 | 0.04 | 80 | 1014.5 |
| 20260906024930 | 75 | 166 | 2.6 | 5.2 | 0.00 | 0.04 | 0.04 | 80 | 1014.5 |
| 20260906024830 | 75 | 175 | 1.7 | 4.3 | 0.00 | 0.04 | 0.04 | 80 | 1014.5 |
| 20260906024741 | 75 | 182 | 2.6 | 4.3 | 0.00 | 0.04 | 0.04 | 79 | 1014.5 |
| 20260906024713 | 75 | 189 | 2.6 | 4.3 | 0.00 | 0.04 | 0.04 | 79 | 1014.4 |
| 20260906024705 | 75 | 243 | 2.6 | 4.3 | 0.00 | 0.04 | 0.04 | 79 | 1014.4 |
| 20260906024435 | 76 | 245 | 2.6 | 4.3 | 0.00 | 0.04 | 0.04 | 79 | 1014.4 |
| 20260906024317 | 76 | 254 | 2.6 | 4.3 | 0.00 | 0.04 | 0.04 | 79 | 1014.4 |
| 20260906024236 | 76 | 249 | 2.6 | 4.3 | 0.00 | 0.04 | 0.04 | 79 | 1014.4 |
| 20260906024140 | 76 | 246 | 2.6 | 4.3 | 0.00 | 0.04 | 0.04 | 78 | 1014.4 |
| 20260906024026 | 76 | 246 | 2.6 | 3.5 | 0.00 | 0.04 | 0.04 | 78 | 1014.4 |
| 20260906023940 | 76 | 232 | 2.6 | 3.5 | 0.00 | 0.04 | 0.04 | 78 | 1014.4 |
| 20260906023837 | 76 | 197 | 2.6 | 5.2 | 0.00 | 0.04 | 0.04 | 78 | 1014.4 |
| 20260906023735 | 76 | 175 | 1.7 | 5.2 | 0.00 | 0.04 | 0.04 | 78 | 1014.3 |
| 20260906023632 | 76 | 175 | 1.7 | 6.1 | 0.00 | 0.04 | 0.04 | 78 | 1014.3 |
| 20260906023547 | 76 | 175 | 1.7 | 6.1 | 0.00 | 0.04 | 0.04 | 78 | 1014.2 |
| 20260906023416 | 76 | 175 | 2.6 | 6.1 | 0.00 | 0.04 | 0.04 | 78 | 1014.2 |
| 20260906023331 | 76 | 178 | 1.7 | 6.1 | 0.00 | 0.04 | 0.04 | 78 | 1014.2 |
| 20260906023253 | 76 | 178 | 1.7 | 6.1 | 0.00 | 0.04 | 0.04 | 77 | 1014.1 |
| 20260906023148 | 76 | 176 | 2.6 | 6.1 | 0.00 | 0.04 | 0.04 | 77 | 1014.2 |
| 20260906022923 | 76 | 163 | 4.3 | 6.1 | 0.00 | 0.04 | 0.04 | 77 | 1014.1 |
| 20260906022835 | 76 | 166 | 4.3 | 6.1 | 0.00 | 0.04 | 0.04 | 77 | 1014.1 |
| 20260906022728 | 76 | 166 | 2.6 | 6.1 | 0.00 | 0.04 | 0.04 | 77 | 1014.0 |
| 20260906022636 | 76 | 185 | 1.7 | 3.5 | 0.00 | 0.04 | 0.04 | 77 | 1014.0 |
| 20260906022549 | 76 | 208 | 1.7 | 3.5 | 0.00 | 0.04 | 0.04 | 77 | 1014.0 |
| 20260906022436 | 76 | 223 | 0.9 | 3.5 | 0.00 | 0.04 | 0.04 | 77 | 1014.0 |
| 20260906022337 | 76 | 238 | 0.0 | 3.5 | 0.00 | 0.04 | 0.04 | 77 | 1014.0 |
| 20260906022221 | 76 | 238 | 0.0 | 3.5 | 0.00 | 0.04 | 0.04 | 77 | 1014.0 |
| 20260906022122 | 76 | 238 | 0.0 | 3.5 | 0.00 | 0.04 | 0.04 | 77 | 1014.0 |
| 20260906022043 | 76 | 238 | 0.0 | 3.5 | 0.00 | 0.04 | 0.04 | 77 | 1014.1 |
| 20260906021936 | 76 | 238 | 0.0 | 3.5 | 0.00 | 0.04 | 0.04 | 77 | 1014.0 |
| 20260906021840 | 76 | 238 | 0.9 | 3.5 | 0.00 | 0.04 | 0.04 | 77 | 1014.0 |
| 20260906021734 | 76 | 238 | 0.9 | 3.5 | 0.00 | 0.04 | 0.04 | 77 | 1014.0 |
| 20260906021636 | 76 | 240 | 2.6 | 3.5 | 0.00 | 0.04 | 0.04 | 76 | 1013.8 |
| 20260906021421 | 76 | 241 | 1.7 | 3.5 | 0.00 | 0.04 | 0.04 | 76 | 1013.8 |
| 20260906021321 | 76 | 244 | 1.7 | 3.5 | 0.00 | 0.04 | 0.04 | 76 | 1013.9 |
| 20260906021229 | 76 | 244 | 1.7 | 3.5 | 0.00 | 0.04 | 0.04 | 76 | 1013.9 |
| 20260906021133 | 76 | 244 | 0.9 | 3.5 | 0.00 | 0.04 | 0.04 | 76 | 1013.9 |
| 20260906021038 | 77 | 246 | 0.0 | 1.7 | 0.00 | 0.04 | 0.04 | 75 | 1013.8 |
| 20260906020927 | 77 | 246 | 0.0 | 0.9 | 0.00 | 0.04 | 0.04 | 75 | 1013.9 |
| 20260906020830 | 77 | 246 | 0.0 | 0.9 | 0.00 | 0.04 | 0.04 | 75 | 1013.8 |
| 20260906020739 | 77 | 246 | 0.0 | 0.9 | 0.00 | 0.04 | 0.04 | 75 | 1013.8 |
| 20260906020642 | 77 | 246 | 0.0 | 0.9 | 0.00 | 0.04 | 0.04 | 75 | 1013.9 |
| 20260906020531 | 77 | 246 | 0.0 | 0.9 | 0.00 | 0.04 | 0.04 | 75 | 1013.8 |
| 20260906020420 | 77 | 246 | 0.0 | 1.7 | 0.00 | 0.04 | 0.04 | 75 | 1013.8 |
| 20260906020324 | 77 | 246 | 0.0 | 1.7 | 0.00 | 0.04 | 0.04 | 75 | 1013.7 |
| 20260906020301 | 77 | 246 | 0.0 | 1.7 | 0.00 | 0.04 | 0.04 | 75 | 1013.7 |
| 20260906020237 | 77 | 246 | 0.0 | 1.7 | 0.00 | 0.04 | 0.04 | 75 | 1013.7 |
| 20260906020139 | 77 | 246 | 0.0 | 1.7 | 0.00 | 0.04 | 0.04 | 75 | 1013.7 |
| 20260906015929 | 77 | 246 | 0.0 | 2.6 | 0.00 | 0.04 | 0.04 | 75 | 1013.7 |
| 20260906015824 | 77 | 246 | 0.0 | 2.6 | 0.00 | 0.04 | 0.04 | 75 | 1013.7 |
| 20260906015728 | 77 | 246 | 0.0 | 2.6 | 0.00 | 0.04 | 0.04 | 75 | 1013.7 |
| 20260906015619 | 77 | 246 | 0.0 | 2.6 | 0.00 | 0.04 | 0.04 | 75 | 1013.7 |
| 20260906015539 | 77 | 246 | 0.0 | 2.6 | 0.00 | 0.04 | 0.04 | 75 | 1013.7 |
| 20260906015432 | 77 | 246 | 0.0 | 2.6 | 0.00 | 0.04 | 0.04 | 75 | 1013.8 |
| 20260906015325 | 77 | 246 | 0.9 | 3.5 | 0.00 | 0.04 | 0.04 | 74 | 1013.8 |
| 20260906015240 | 77 | 246 | 0.9 | 3.5 | 0.00 | 0.04 | 0.04 | 74 | 1013.7 |
| 20260906015119 | 77 | 246 | 0.9 | 3.5 | 0.00 | 0.04 | 0.04 | 74 | 1013.8 |
| 20260906015039 | 77 | 246 | 0.9 | 3.5 | 0.00 | 0.04 | 0.04 | 74 | 1013.8 |
| 20260906014926 | 77 | 246 | 1.7 | 3.5 | 0.00 | 0.04 | 0.04 | 74 | 1013.8 |
| 20260906014824 | 77 | 246 | 1.7 | 3.5 | 0.00 | 0.04 | 0.04 | 74 | 1013.8 |
| 20260906014734 | 77 | 246 | 1.7 | 3.5 | 0.00 | 0.04 | 0.04 | 74 | 1013.8 |
| 20260906014720 | 77 | 246 | 1.7 | 3.5 | 0.00 | 0.04 | 0.04 | 74 | 1013.8 |
| 20260906014625 | 77 | 247 | 1.7 | 3.5 | 0.00 | 0.04 | 0.04 | 74 | 1013.8 |
| 20260906014437 | 77 | 247 | 1.7 | 3.5 | 0.00 | 0.04 | 0.04 | 74 | 1013.8 |
| 20260906014323 | 77 | 248 | 2.6 | 3.5 | 0.00 | 0.04 | 0.04 | 74 | 1013.8 |
| 20260906014241 | 78 | 249 | 1.7 | 3.5 | 0.00 | 0.04 | 0.04 | 73 | 1013.8 |
| 20260906014119 | 78 | 250 | 1.7 | 3.5 | 0.00 | 0.04 | 0.04 | 73 | 1013.8 |
| 20260906014037 | 78 | 250 | 1.7 | 4.3 | 0.00 | 0.04 | 0.04 | 73 | 1013.8 |
| 20260906013928 | 78 | 250 | 1.7 | 4.3 | 0.00 | 0.04 | 0.04 | 73 | 1013.8 |
| 20260906013831 | 78 | 251 | 1.7 | 4.3 | 0.00 | 0.04 | 0.04 | 73 | 1013.8 |
| 20260906013730 | 78 | 251 | 1.7 | 4.3 | 0.00 | 0.04 | 0.04 | 73 | 1013.8 |
| 20260906013634 | 78 | 251 | 2.6 | 4.3 | 0.00 | 0.04 | 0.04 | 73 | 1013.8 |
| 20260906013520 | 78 | 252 | 1.7 | 4.3 | 0.00 | 0.04 | 0.04 | 73 | 1013.8 |
| 20260906013429 | 78 | 252 | 1.7 | 4.3 | 0.00 | 0.04 | 0.04 | 73 | 1013.8 |
| 20260906013345 | 78 | 253 | 1.7 | 4.3 | 0.00 | 0.04 | 0.04 | 73 | 1013.8 |
| 20260906013230 | 78 | 253 | 2.6 | 4.3 | 0.00 | 0.04 | 0.04 | 73 | 1013.9 |
| 20260906013159 | 78 | 253 | 3.5 | 4.3 | 0.00 | 0.04 | 0.04 | 72 | 1013.8 |
| 20260906012940 | 78 | 266 | 1.7 | 5.2 | 0.00 | 0.04 | 0.04 | 72 | 1013.8 |
| 20260906012825 | 78 | 360 | 1.7 | 2.6 | 0.00 | 0.04 | 0.04 | 72 | 1013.8 |
| 20260906012730 | 78 | 360 | 1.7 | 2.6 | 0.00 | 0.04 | 0.04 | 72 | 1013.8 |
| 20260906012632 | 78 | 5 | 0.9 | 2.6 | 0.00 | 0.04 | 0.04 | 72 | 1013.8 |
| 20260906012543 | 78 | 5 | 0.0 | 1.7 | 0.00 | 0.04 | 0.04 | 72 | 1013.8 |
| 20260906012441 | 78 | 5 | 0.0 | 1.7 | 0.00 | 0.04 | 0.04 | 71 | 1013.7 |
| 20260906012344 | 78 | 5 | 0.0 | 1.7 | 0.00 | 0.04 | 0.04 | 71 | 1013.7 |
| 20260906012255 | 78 | 5 | 0.0 | 1.7 | 0.00 | 0.04 | 0.04 | 71 | 1013.7 |
| 20260906012135 | 78 | 5 | 0.0 | 1.7 | 0.00 | 0.04 | 0.04 | 71 | 1013.7 |
| 20260906012040 | 78 | 5 | 0.0 | 1.7 | 0.00 | 0.04 | 0.04 | 71 | 1013.6 |
| 20260906011942 | 78 | 5 | 0.0 | 1.7 | 0.00 | 0.04 | 0.04 | 71 | 1013.6 |
| 20260906011835 | 78 | 5 | 0.9 | 1.7 | 0.00 | 0.04 | 0.04 | 71 | 1013.5 |
| 20260906011745 | 78 | 5 | 0.0 | 2.6 | 0.00 | 0.04 | 0.04 | 71 | 1013.4 |
| 20260906011652 | 78 | 5 | 0.0 | 3.5 | 0.00 | 0.04 | 0.04 | 71 | 1013.4 |
| 20260906011418 | 78 | 5 | 0.0 | 3.5 | 0.00 | 0.04 | 0.04 | 71 | 1013.4 |
| 20260906011343 | 78 | 5 | 0.9 | 3.5 | 0.00 | 0.04 | 0.04 | 71 | 1013.4 |
| 20260906011221 | 78 | 5 | 0.9 | 3.5 | 0.00 | 0.04 | 0.04 | 71 | 1013.3 |
| 20260906011129 | 78 | 5 | 0.0 | 3.5 | 0.00 | 0.04 | 0.04 | 71 | 1013.3 |
| 20260906011036 | 78 | 5 | 0.0 | 3.5 | 0.00 | 0.04 | 0.04 | 71 | 1013.3 |
| 20260906010928 | 78 | 5 | 0.9 | 3.5 | 0.00 | 0.04 | 0.04 | 71 | 1013.4 |
| 20260906010833 | 78 | 5 | 1.7 | 3.5 | 0.00 | 0.04 | 0.04 | 71 | 1013.5 |
| 20260906010732 | 78 | 5 | 0.9 | 3.5 | 0.00 | 0.04 | 0.04 | 71 | 1013.5 |
| 20260906010635 | 78 | 360 | 0.0 | 3.5 | 0.00 | 0.04 | 0.04 | 71 | 1013.5 |
| 20260906010532 | 79 | 355 | 0.0 | 0.0 | 0.00 | 0.04 | 0.04 | 71 | 1013.5 |
| 20260906010417 | 79 | 355 | 0.0 | 0.0 | 0.00 | 0.04 | 0.04 | 71 | 1013.5 |
| 20260906010325 | 79 | 355 | 0.0 | 0.0 | 0.00 | 0.04 | 0.04 | 71 | 1013.5 |
| 20260906010251 | 79 | 355 | 0.0 | 0.0 | 0.00 | 0.04 | 0.04 | 71 | 1013.5 |
| 20260906010140 | 79 | 355 | 0.0 | 0.0 | 0.00 | 0.04 | 0.04 | 71 | 1013.4 |
| 20260906005933 | 79 | 355 | 0.0 | 0.0 | 0.00 | 0.04 | 0.04 | 71 | 1013.4 |
| 20260906005838 | 79 | 355 | 0.0 | 0.0 | 0.00 | 0.04 | 0.04 | 71 | 1013.4 |
| 20260906005730 | 79 | 355 | 0.0 | 0.0 | 0.00 | 0.04 | 0.04 | 70 | 1013.4 |
| 20260906005640 | 79 | 355 | 0.0 | 0.0 | 0.00 | 0.04 | 0.04 | 70 | 1013.4 |
| 20260906005536 | 79 | 355 | 0.0 | 0.0 | 0.00 | 0.04 | 0.04 | 70 | 1013.4 |
| 20260906005430 | 79 | 355 | 0.0 | 0.0 | 0.00 | 0.04 | 0.04 | 70 | 1013.4 |
| 20260906005339 | 79 | 355 | 0.0 | 0.0 | 0.00 | 0.04 | 0.04 | 70 | 1013.4 |
| 20260906005242 | 79 | 355 | 0.0 | 0.0 | 0.00 | 0.04 | 0.04 | 70 | 1013.4 |
| 20260906005144 | 79 | 355 | 0.0 | 0.0 | 0.00 | 0.04 | 0.04 | 70 | 1013.4 |
| 20260906005043 | 79 | 355 | 0.0 | 0.0 | 0.00 | 0.04 | 0.04 | 70 | 1013.4 |
| 20260906004932 | 79 | 355 | 0.0 | 0.0 | 0.00 | 0.04 | 0.04 | 70 | 1013.3 |
| 20260906004834 | 79 | 355 | 0.0 | 0.0 | 0.00 | 0.04 | 0.04 | 70 | 1013.3 |
| 20260906004718 | 79 | 355 | 0.0 | 0.0 | 0.00 | 0.04 | 0.04 | 70 | 1013.4 |
| 20260906004624 | 79 | 355 | 0.0 | 1.7 | 0.00 | 0.04 | 0.04 | 70 | 1013.4 |
| 20260906004425 | 79 | 355 | 0.0 | 1.7 | 0.00 | 0.04 | 0.04 | 70 | 1013.4 |
| 20260906004328 | 79 | 355 | 0.0 | 1.7 | 0.00 | 0.04 | 0.04 | 70 | 1013.4 |
| 20260906004226 | 79 | 355 | 0.0 | 1.7 | 0.00 | 0.04 | 0.04 | 70 | 1013.4 |
| 20260906004125 | 79 | 355 | 0.0 | 1.7 | 0.00 | 0.04 | 0.04 | 70 | 1013.4 |
| 20260906004026 | 79 | 355 | 0.0 | 1.7 | 0.00 | 0.04 | 0.04 | 70 | 1013.3 |
| 20260906003921 | 79 | 355 | 0.0 | 1.7 | 0.00 | 0.04 | 0.04 | 70 | 1013.3 |
| 20260906003819 | 79 | 355 | 0.0 | 1.7 | 0.00 | 0.04 | 0.04 | 70 | 1013.3 |
| 20260906003742 | 79 | 355 | 0.0 | 1.7 | 0.00 | 0.04 | 0.04 | 70 | 1013.3 |
| 20260906003636 | 79 | 355 | 0.9 | 1.7 | 0.00 | 0.04 | 0.04 | 70 | 1013.3 |
| 20260906003534 | 79 | 355 | 0.9 | 1.7 | 0.00 | 0.04 | 0.04 | 69 | 1013.3 |
| 20260906003436 | 79 | 355 | 0.0 | 1.7 | 0.00 | 0.04 | 0.04 | 69 | 1013.2 |
| 20260906003331 | 79 | 355 | 0.0 | 1.7 | 0.00 | 0.04 | 0.04 | 69 | 1013.2 |
| 20260906003238 | 79 | 355 | 0.0 | 3.5 | 0.00 | 0.04 | 0.04 | 69 | 1013.2 |
| 20260906003134 | 80 | 355 | 0.0 | 3.5 | 0.00 | 0.04 | 0.04 | 69 | 1013.2 |
| 20260906002933 | 80 | 355 | 0.0 | 3.5 | 0.00 | 0.04 | 0.04 | 69 | 1013.2 |
| 20260906002840 | 80 | 355 | 0.0 | 3.5 | 0.00 | 0.04 | 0.04 | 69 | 1013.2 |
| 20260906002723 | 80 | 355 | 0.0 | 3.5 | 0.00 | 0.04 | 0.04 | 69 | 1013.1 |
| 20260906002627 | 80 | 355 | 0.0 | 4.3 | 0.00 | 0.04 | 0.04 | 69 | 1013.1 |
| 20260906002529 | 80 | 355 | 0.9 | 5.2 | 0.00 | 0.04 | 0.04 | 69 | 1013.2 |
| 20260906002435 | 80 | 355 | 1.7 | 5.2 | 0.00 | 0.04 | 0.04 | 69 | 1013.1 |
| 20260906002321 | 80 | 355 | 0.9 | 5.2 | 0.00 | 0.04 | 0.04 | 69 | 1013.2 |
| 20260906002236 | 80 | 355 | 0.9 | 5.2 | 0.00 | 0.04 | 0.04 | 69 | 1013.2 |
| 20260906002151 | 80 | 355 | 1.7 | 5.2 | 0.00 | 0.04 | 0.04 | 69 | 1013.2 |
| 20260906002027 | 80 | 355 | 1.7 | 5.2 | 0.00 | 0.04 | 0.04 | 69 | 1013.2 |
| 20260906001937 | 80 | 355 | 1.7 | 5.2 | 0.00 | 0.04 | 0.04 | 69 | 1013.2 |
| 20260906001818 | 80 | 355 | 2.6 | 5.2 | 0.00 | 0.04 | 0.04 | 69 | 1013.2 |
| 20260906001735 | 80 | 355 | 3.5 | 5.2 | 0.00 | 0.04 | 0.04 | 69 | 1013.2 |
| 20260906001702 | 80 | 360 | 2.6 | 5.2 | 0.00 | 0.04 | 0.04 | 68 | 1013.2 |
| 20260906001629 | 80 | 355 | 2.6 | 7.0 | 0.00 | 0.04 | 0.04 | 68 | 1013.1 |
| 20260906001439 | 80 | 355 | 2.6 | 7.0 | 0.00 | 0.04 | 0.04 | 68 | 1013.1 |
| 20260906001324 | 80 | 355 | 2.6 | 7.0 | 0.00 | 0.04 | 0.04 | 68 | 1013.0 |
| 20260906001238 | 80 | 355 | 2.6 | 7.0 | 0.00 | 0.04 | 0.04 | 68 | 1013.0 |
| 20260906001135 | 80 | 350 | 2.6 | 7.0 | 0.00 | 0.04 | 0.04 | 68 | 1012.9 |
| 20260906001036 | 80 | 13 | 2.6 | 7.0 | 0.00 | 0.04 | 0.04 | 68 | 1012.9 |
| 20260906000942 | 80 | 360 | 2.6 | 7.0 | 0.00 | 0.04 | 0.04 | 68 | 1012.9 |
| 20260906000842 | 80 | 355 | 3.5 | 7.0 | 0.00 | 0.04 | 0.04 | 68 | 1013.0 |
| 20260906000717 | 80 | 349 | 3.5 | 7.0 | 0.00 | 0.04 | 0.04 | 68 | 1013.0 |
| 20260906000617 | 80 | 355 | 4.3 | 7.0 | 0.00 | 0.04 | 0.04 | 67 | 1013.0 |
| 20260906000537 | 80 | 336 | 3.5 | 7.0 | 0.00 | 0.04 | 0.04 | 67 | 1013.1 |
| 20260906000434 | 81 | 341 | 2.6 | 7.0 | 0.00 | 0.04 | 0.04 | 67 | 1013.1 |
| 20260906000344 | 81 | 360 | 2.6 | 7.0 | 0.00 | 0.04 | 0.04 | 67 | 1013.1 |
| 20260906000256 | 81 | 11 | 2.6 | 7.0 | 0.00 | 0.04 | 0.04 | 67 | 1013.1 |
| 20260906000154 | 81 | 339 | 3.5 | 7.0 | 0.00 | 0.04 | 0.04 | 67 | 1013.2 |
| 20260905235919 | 81 | 351 | 3.5 | 7.0 | 0.00 | 0.04 | 0.04 | 66 | 1013.1 |
| 20260905235832 | 81 | 337 | 3.5 | 7.0 | 0.00 | 0.04 | 0.04 | 66 | 1013.1 |
| 20260905235745 | 81 | 348 | 2.6 | 7.0 | 0.00 | 0.04 | 0.04 | 66 | 1013.1 |
| 20260905235629 | 81 | 25 | 3.5 | 7.0 | 0.00 | 0.04 | 0.04 | 66 | 1013.1 |
| 20260905235525 | 81 | 360 | 3.5 | 7.0 | 0.00 | 0.04 | 0.04 | 66 | 1013.0 |
| 20260905235443 | 81 | 5 | 2.6 | 7.0 | 0.00 | 0.04 | 0.04 | 66 | 1013.0 |
| 20260905235330 | 81 | 18 | 2.6 | 7.0 | 0.00 | 0.04 | 0.04 | 66 | 1013.1 |
| 20260905235227 | 81 | 5 | 2.6 | 7.0 | 0.00 | 0.04 | 0.04 | 66 | 1012.9 |
| 20260905235128 | 82 | 32 | 3.5 | 7.0 | 0.00 | 0.04 | 0.04 | 66 | 1013.1 |
| 20260905235024 | 82 | 36 | 3.5 | 7.0 | 0.00 | 0.04 | 0.04 | 65 | 1013.1 |
| 20260905234935 | 82 | 26 | 3.5 | 7.0 | 0.00 | 0.04 | 0.04 | 65 | 1013.1 |
| 20260905234830 | 82 | 10 | 2.6 | 7.0 | 0.00 | 0.04 | 0.04 | 65 | 1013.1 |
| 20260905234748 | 82 | 5 | 3.5 | 7.0 | 0.00 | 0.04 | 0.04 | 65 | 1013.1 |
| 20260905234638 | 82 | 346 | 3.5 | 7.0 | 0.00 | 0.04 | 0.04 | 64 | 1013.1 |
| 20260905234437 | 82 | 360 | 2.6 | 7.0 | 0.00 | 0.04 | 0.04 | 64 | 1013.1 |
| 20260905234342 | 82 | 331 | 1.7 | 4.3 | 0.00 | 0.04 | 0.04 | 64 | 1013.1 |
| 20260905234229 | 82 | 5 | 1.7 | 4.3 | 0.00 | 0.04 | 0.04 | 64 | 1013.1 |
| 20260905234126 | 82 | 5 | 2.6 | 4.3 | 0.00 | 0.04 | 0.04 | 64 | 1013.1 |
| 20260905234019 | 82 | 11 | 2.6 | 4.3 | 0.00 | 0.04 | 0.04 | 64 | 1013.1 |
| 20260905233933 | 83 | 338 | 2.6 | 4.3 | 0.00 | 0.04 | 0.04 | 64 | 1013.1 |
| 20260905233827 | 83 | 5 | 2.6 | 4.3 | 0.00 | 0.04 | 0.04 | 64 | 1013.0 |
| 20260905233736 | 83 | 5 | 1.7 | 4.3 | 0.00 | 0.04 | 0.04 | 64 | 1013.1 |
| 20260905233624 | 83 | 19 | 1.7 | 4.3 | 0.00 | 0.04 | 0.04 | 64 | 1012.9 |
| 20260905233539 | 83 | 360 | 1.7 | 4.3 | 0.00 | 0.04 | 0.04 | 64 | 1013.0 |
| 20260905233419 | 83 | 355 | 2.6 | 4.3 | 0.00 | 0.04 | 0.04 | 64 | 1013.0 |
| 20260905233336 | 83 | 355 | 3.5 | 4.3 | 0.00 | 0.04 | 0.04 | 64 | 1013.0 |
| 20260905233227 | 83 | 351 | 1.7 | 4.3 | 0.00 | 0.04 | 0.04 | 63 | 1012.9 |
| 20260905233049 | 83 | 5 | 1.7 | 4.3 | 0.00 | 0.04 | 0.04 | 63 | 1012.9 |
| 20260905232955 | 83 | 15 | 1.7 | 4.3 | 0.00 | 0.04 | 0.04 | 63 | 1012.8 |
| 20260905232834 | 83 | 5 | 1.7 | 3.5 | 0.00 | 0.04 | 0.04 | 63 | 1012.8 |
| 20260905232727 | 83 | 5 | 1.7 | 3.5 | 0.00 | 0.04 | 0.04 | 63 | 1012.7 |
| 20260905232636 | 83 | 9 | 1.7 | 3.5 | 0.00 | 0.04 | 0.04 | 63 | 1012.7 |
| 20260905232519 | 83 | 12 | 1.7 | 3.5 | 0.00 | 0.04 | 0.04 | 63 | 1012.7 |
| 20260905232418 | 83 | 360 | 0.9 | 3.5 | 0.00 | 0.04 | 0.04 | 63 | 1012.7 |
| 20260905232344 | 83 | 360 | 0.0 | 2.6 | 0.00 | 0.04 | 0.04 | 63 | 1012.8 |
| 20260905232225 | 83 | 284 | 0.0 | 0.0 | 0.00 | 0.04 | 0.04 | 63 | 1012.7 |
| 20260905232117 | 83 | 284 | 0.0 | 0.0 | 0.00 | 0.04 | 0.04 | 63 | 1012.7 |
| 20260905232030 | 83 | 284 | 0.0 | 0.0 | 0.00 | 0.04 | 0.04 | 63 | 1012.8 |
| 20260905232002 | 83 | 285 | 0.0 | 0.0 | 0.00 | 0.04 | 0.04 | 63 | 1012.8 |
| 20260905231820 | 83 | 288 | 0.0 | 0.0 | 0.00 | 0.04 | 0.04 | 63 | 1012.7 |
| 20260905231742 | 83 | 341 | 0.0 | 0.0 | 0.00 | 0.04 | 0.04 | 63 | 1012.8 |
| 20260905231700 | 83 | 355 | 0.0 | 0.0 | 0.00 | 0.04 | 0.04 | 63 | 1012.8 |
| 20260905231631 | 83 | 355 | 0.0 | 0.0 | 0.00 | 0.04 | 0.04 | 63 | 1012.8 |
| 20260905231437 | 83 | 355 | 0.0 | 0.0 | 0.00 | 0.04 | 0.04 | 62 | 1012.8 |
| 20260905231326 | 83 | 355 | 0.0 | 0.0 | 0.00 | 0.04 | 0.04 | 62 | 1012.8 |
| 20260905231237 | 84 | 327 | 0.0 | 0.0 | 0.00 | 0.04 | 0.04 | 62 | 1012.7 |
| 20260905231128 | 84 | 15 | 0.0 | 0.0 | 0.00 | 0.04 | 0.04 | 62 | 1012.5 |
| 20260905231025 | 84 | 360 | 0.0 | 0.0 | 0.00 | 0.04 | 0.04 | 62 | 1012.6 |
| 20260905230921 | 84 | 355 | 0.0 | 0.0 | 0.00 | 0.04 | 0.04 | 62 | 1012.6 |
| 20260905230820 | 84 | 9 | 0.0 | 0.0 | 0.00 | 0.04 | 0.04 | 62 | 1012.6 |
| 20260905230732 | 84 | 350 | 0.0 | 0.0 | 0.00 | 0.04 | 0.04 | 62 | 1012.6 |
| 20260905230635 | 84 | 347 | 0.0 | 0.0 | 0.00 | 0.04 | 0.04 | 62 | 1012.7 |
| 20260905230542 | 84 | 348 | 0.0 | 0.0 | 0.00 | 0.04 | 0.04 | 62 | 1012.7 |
| 20260905230429 | 84 | 355 | 0.0 | 0.0 | 0.00 | 0.04 | 0.04 | 62 | 1012.7 |
| 20260905230325 | 84 | 350 | 0.0 | 0.0 | 0.00 | 0.04 | 0.04 | 62 | 1012.7 |
| 20260905230309 | 84 | 355 | 0.0 | 0.0 | 0.00 | 0.04 | 0.04 | 61 | 1012.7 |
| 20260905230157 | 84 | 11 | 0.0 | 0.0 | 0.00 | 0.04 | 0.04 | 61 | 1012.6 |
| 20260905225942 | 84 | 360 | 0.0 | 0.0 | 0.00 | 0.04 | 0.04 | 61 | 1012.5 |
| 20260905225842 | 84 | 350 | 0.0 | 0.0 | 0.00 | 0.04 | 0.04 | 61 | 1012.4 |
| 20260905225727 | 84 | 346 | 0.0 | 0.0 | 0.00 | 0.04 | 0.04 | 61 | 1012.5 |
| 20260905225619 | 84 | 360 | 0.0 | 0.0 | 0.00 | 0.04 | 0.04 | 61 | 1012.4 |
| 20260905225534 | 84 | 344 | 0.0 | 0.0 | 0.00 | 0.04 | 0.04 | 61 | 1012.4 |
| 20260905225426 | 84 | 350 | 0.0 | 0.0 | 0.00 | 0.04 | 0.04 | 61 | 1012.5 |
| 20260905225319 | 84 | 348 | 0.0 | 0.0 | 0.00 | 0.04 | 0.04 | 61 | 1012.4 |
| 20260905225234 | 84 | 355 | 0.0 | 0.0 | 0.00 | 0.04 | 0.04 | 61 | 1012.5 |
| 20260905225119 | 84 | 355 | 0.0 | 0.0 | 0.00 | 0.04 | 0.04 | 61 | 1012.5 |
| 20260905225015 | 84 | 5 | 0.0 | 0.0 | 0.00 | 0.04 | 0.04 | 60 | 1012.7 |
| 20260905224940 | 84 | 18 | 0.0 | 0.0 | 0.00 | 0.04 | 0.04 | 60 | 1012.6 |
| 20260905224836 | 84 | 352 | 0.0 | 0.0 | 0.00 | 0.04 | 0.04 | 60 | 1012.7 |
| 20260905224758 | 84 | 360 | 0.0 | 0.0 | 0.00 | 0.04 | 0.04 | 60 | 1012.7 |
| 20260905224639 | 85 | 352 | 0.0 | 0.0 | 0.00 | 0.04 | 0.04 | 60 | 1012.7 |
| 20260905224442 | 85 | 355 | 0.0 | 0.0 | 0.00 | 0.04 | 0.04 | 60 | 1012.8 |
| 20260905224327 | 85 | 9 | 0.0 | 0.0 | 0.00 | 0.04 | 0.04 | 60 | 1012.9 |
| 20260905224236 | 85 | 60 | 0.0 | 0.0 | 0.00 | 0.04 | 0.04 | 60 | 1012.9 |
| 20260905224126 | 85 | 30 | 0.0 | 0.0 | 0.00 | 0.04 | 0.04 | 60 | 1012.9 |
| 20260905224028 | 85 | 28 | 0.0 | 0.0 | 0.00 | 0.04 | 0.04 | 60 | 1012.9 |
| 20260905223917 | 85 | 360 | 0.0 | 0.0 | 0.00 | 0.04 | 0.04 | 59 | 1012.9 |
| 20260905223842 | 85 | 360 | 0.0 | 0.0 | 0.00 | 0.04 | 0.04 | 59 | 1012.9 |
| 20260905223818 | 85 | 360 | 0.0 | 0.0 | 0.00 | 0.04 | 0.04 | 59 | 1012.9 |
| 20260905223636 | 85 | 58 | 0.0 | 0.0 | 0.00 | 0.04 | 0.04 | 59 | 1012.9 |
| 20260905223526 | 85 | 355 | 0.0 | 0.0 | 0.00 | 0.04 | 0.04 | 60 | 1012.9 |
| 20260905223425 | 85 | 5 | 0.0 | 0.0 | 0.00 | 0.04 | 0.04 | 59 | 1013.0 |
| 20260905223322 | 85 | 355 | 0.0 | 0.0 | 0.00 | 0.04 | 0.04 | 59 | 1013.1 |
| 20260905223303 | 85 | 360 | 0.0 | 0.0 | 0.00 | 0.04 | 0.04 | 59 | 1013.1 |
| 20260905223150 | 85 | 360 | 0.0 | 0.0 | 0.00 | 0.04 | 0.04 | 59 | 1013.0 |
| 20260905222923 | 85 | 11 | 0.0 | 0.0 | 0.00 | 0.04 | 0.04 | 59 | 1013.1 |
| 20260905222826 | 85 | 9 | 0.0 | 0.0 | 0.00 | 0.04 | 0.04 | 59 | 1013.1 |
| 20260905222736 | 85 | 22 | 0.0 | 0.0 | 0.00 | 0.04 | 0.04 | 59 | 1013.1 |
| 20260905222632 | 85 | 34 | 0.0 | 0.0 | 0.00 | 0.04 | 0.04 | 60 | 1013.2 |
| 20260905222526 | 85 | 34 | 0.0 | 0.0 | 0.00 | 0.04 | 0.04 | 59 | 1013.1 |
| 20260905222436 | 85 | 49 | 0.0 | 0.0 | 0.00 | 0.04 | 0.04 | 59 | 1013.1 |
| 20260905222343 | 85 | 20 | 0.0 | 0.0 | 0.00 | 0.04 | 0.04 | 60 | 1013.1 |
| 20260905222243 | 85 | 9 | 0.0 | 0.0 | 0.00 | 0.04 | 0.04 | 60 | 1013.1 |
| 20260905222137 | 85 | 28 | 0.0 | 0.0 | 0.00 | 0.04 | 0.04 | 59 | 1013.1 |
| 20260905222033 | 85 | 30 | 0.0 | 0.0 | 0.00 | 0.04 | 0.04 | 59 | 1013.0 |
| 20260905221926 | 85 | 52 | 0.0 | 0.0 | 0.00 | 0.04 | 0.04 | 60 | 1013.1 |
| 20260905221824 | 85 | 40 | 0.0 | 0.0 | 0.00 | 0.04 | 0.04 | 60 | 1013.1 |
| 20260905221735 | 85 | 35 | 0.0 | 0.0 | 0.00 | 0.04 | 0.04 | 60 | 1013.0 |
| 20260905221659 | 85 | 342 | 0.0 | 0.0 | 0.00 | 0.04 | 0.04 | 59 | 1013.0 |
| 20260905221632 | 85 | 340 | 0.0 | 0.0 | 0.00 | 0.04 | 0.04 | 60 | 1013.1 |
| 20260905221442 | 85 | 13 | 0.0 | 0.0 | 0.00 | 0.04 | 0.04 | 60 | 1012.9 |
| 20260905221336 | 85 | 360 | 0.0 | 0.0 | 0.00 | 0.04 | 0.04 | 59 | 1013.0 |
| 20260905221232 | 85 | 355 | 0.0 | 0.0 | 0.00 | 0.04 | 0.04 | 59 | 1012.9 |
| 20260905221129 | 85 | 360 | 0.0 | 0.0 | 0.00 | 0.04 | 0.04 | 59 | 1012.9 |
| 20260905221036 | 85 | 5 | 0.0 | 0.0 | 0.00 | 0.04 | 0.04 | 59 | 1012.9 |
| 20260905220935 | 85 | 30 | 0.0 | 0.0 | 0.00 | 0.04 | 0.04 | 59 | 1012.9 |
| 20260905220827 | 85 | 38 | 0.0 | 0.0 | 0.00 | 0.04 | 0.04 | 59 | 1012.9 |
| 20260905220743 | 85 | 13 | 0.0 | 0.0 | 0.00 | 0.04 | 0.04 | 59 | 1012.9 |
| 20260905220641 | 85 | 24 | 0.0 | 0.0 | 0.00 | 0.04 | 0.04 | 59 | 1012.9 |
| 20260905220531 | 85 | 30 | 0.0 | 0.0 | 0.00 | 0.04 | 0.04 | 59 | 1012.9 |
| 20260905220433 | 85 | 355 | 0.0 | 0.0 | 0.00 | 0.04 | 0.04 | 59 | 1012.8 |
| 20260905220332 | 85 | 345 | 0.0 | 0.0 | 0.00 | 0.04 | 0.04 | 59 | 1012.9 |
| 20260905220258 | 85 | 339 | 0.0 | 0.0 | 0.00 | 0.04 | 0.04 | 59 | 1013.0 |
| 20260905220241 | 85 | 5 | 0.0 | 0.0 | 0.00 | 0.04 | 0.04 | 59 | 1013.0 |
| 20260905220132 | 85 | 51 | 0.0 | 0.0 | 0.00 | 0.04 | 0.04 | 59 | 1013.0 |
| 20260905215931 | 85 | 55 | 0.0 | 0.0 | 0.00 | 0.04 | 0.04 | 59 | 1013.0 |
| 20260905215827 | 85 | 56 | 0.0 | 0.0 | 0.00 | 0.04 | 0.04 | 59 | 1013.0 |
| 20260905215736 | 85 | 67 | 0.0 | 0.0 | 0.00 | 0.04 | 0.04 | 59 | 1013.0 |
| 20260905215640 | 85 | 299 | 0.0 | 0.0 | 0.00 | 0.04 | 0.04 | 59 | 1013.1 |
| 20260905215527 | 85 | 287 | 0.0 | 0.0 | 0.00 | 0.04 | 0.04 | 59 | 1013.1 |
| 20260905215422 | 85 | 287 | 0.0 | 0.0 | 0.00 | 0.04 | 0.04 | 59 | 1013.1 |
| 20260905215329 | 84 | 324 | 0.0 | 0.0 | 0.00 | 0.04 | 0.04 | 60 | 1013.2 |
| 20260905215231 | 84 | 325 | 0.0 | 0.0 | 0.00 | 0.04 | 0.04 | 60 | 1013.2 |
| 20260905215122 | 84 | 325 | 0.0 | 0.0 | 0.00 | 0.04 | 0.04 | 60 | 1013.2 |
| 20260905215042 | 84 | 355 | 0.0 | 0.0 | 0.00 | 0.04 | 0.04 | 59 | 1013.1 |
| 20260905214939 | 84 | 355 | 0.0 | 0.0 | 0.00 | 0.04 | 0.04 | 59 | 1013.2 |
| 20260905214836 | 84 | 350 | 0.0 | 0.0 | 0.00 | 0.04 | 0.04 | 59 | 1013.2 |
| 20260905214750 | 84 | 352 | 0.0 | 0.0 | 0.00 | 0.04 | 0.04 | 59 | 1013.2 |
| 20260905214631 | 84 | 360 | 0.0 | 0.0 | 0.00 | 0.04 | 0.04 | 59 | 1013.2 |
| 20260905214420 | 84 | 5 | 0.0 | 0.0 | 0.00 | 0.04 | 0.04 | 59 | 1013.2 |
| 20260905214337 | 84 | 10 | 0.0 | 0.0 | 0.00 | 0.04 | 0.04 | 59 | 1013.3 |
| 20260905214226 | 85 | 296 | 0.0 | 0.0 | 0.00 | 0.04 | 0.04 | 59 | 1013.3 |
| 20260905214132 | 85 | 300 | 0.0 | 0.0 | 0.00 | 0.04 | 0.04 | 59 | 1013.3 |
| 20260905214035 | 85 | 285 | 0.0 | 0.0 | 0.00 | 0.04 | 0.04 | 59 | 1013.3 |
| 20260905213924 | 85 | 276 | 0.0 | 0.0 | 0.00 | 0.04 | 0.04 | 58 | 1013.2 |
| 20260905213824 | 85 | 277 | 0.0 | 0.0 | 0.00 | 0.04 | 0.04 | 58 | 1013.3 |
| 20260905213728 | 85 | 294 | 0.0 | 0.0 | 0.00 | 0.04 | 0.04 | 58 | 1013.3 |
| 20260905213634 | 85 | 288 | 0.0 | 0.0 | 0.00 | 0.04 | 0.04 | 58 | 1013.4 |
| 20260905213520 | 85 | 290 | 0.0 | 0.0 | 0.00 | 0.04 | 0.04 | 58 | 1013.4 |
| 20260905213417 | 85 | 290 | 0.0 | 0.0 | 0.00 | 0.04 | 0.04 | 58 | 1013.3 |
| 20260905213320 | 85 | 331 | 0.0 | 0.0 | 0.00 | 0.04 | 0.04 | 57 | 1013.4 |
| 20260905213245 | 85 | 350 | 0.0 | 0.0 | 0.00 | 0.04 | 0.04 | 57 | 1013.4 |
| 20260905213220 | 85 | 351 | 0.0 | 0.0 | 0.00 | 0.04 | 0.04 | 57 | 1013.5 |
| 20260905213144 | 85 | 352 | 0.0 | 0.0 | 0.00 | 0.04 | 0.04 | 57 | 1013.5 |
| 20260905212920 | 85 | 355 | 0.0 | 0.0 | 0.00 | 0.04 | 0.04 | 57 | 1013.6 |
| 20260905212842 | 86 | 351 | 0.0 | 0.0 | 0.00 | 0.04 | 0.04 | 57 | 1013.6 |
| 20260905212735 | 86 | 5 | 0.0 | 0.0 | 0.00 | 0.04 | 0.04 | 56 | 1013.5 |
| 20260905212636 | 86 | 360 | 0.0 | 0.0 | 0.00 | 0.04 | 0.04 | 56 | 1013.6 |
| 20260905212535 | 86 | 350 | 0.0 | 0.0 | 0.00 | 0.04 | 0.04 | 56 | 1013.6 |
| 20260905212443 | 86 | 355 | 0.0 | 0.0 | 0.00 | 0.04 | 0.04 | 56 | 1013.7 |
| 20260905212321 | 86 | 352 | 0.0 | 0.0 | 0.00 | 0.04 | 0.04 | 56 | 1013.7 |
| 20260905212233 | 86 | 350 | 0.0 | 0.0 | 0.00 | 0.04 | 0.04 | 56 | 1013.7 |
| 20260905212137 | 86 | 347 | 0.0 | 0.0 | 0.00 | 0.04 | 0.04 | 57 | 1013.8 |
| 20260905212028 | 86 | 348 | 0.0 | 0.0 | 0.00 | 0.04 | 0.04 | 57 | 1013.8 |
| 20260905211943 | 86 | 26 | 0.0 | 0.0 | 0.00 | 0.04 | 0.04 | 57 | 1013.8 |
| 20260905211824 | 85 | 30 | 0.0 | 0.0 | 0.00 | 0.04 | 0.04 | 57 | 1013.8 |
| 20260905211742 | 85 | 49 | 0.0 | 0.0 | 0.00 | 0.04 | 0.04 | 57 | 1013.8 |
| 20260905211642 | 85 | 32 | 0.0 | 0.0 | 0.00 | 0.04 | 0.04 | 58 | 1013.8 |
| 20260905211425 | 85 | 31 | 0.0 | 0.0 | 0.00 | 0.04 | 0.04 | 58 | 1013.8 |
| 20260905211337 | 85 | 66 | 0.0 | 0.0 | 0.00 | 0.04 | 0.04 | 58 | 1013.9 |
| 20260905211242 | 85 | 57 | 0.0 | 0.0 | 0.00 | 0.04 | 0.04 | 58 | 1013.9 |
| 20260905211138 | 85 | 51 | 0.0 | 0.0 | 0.00 | 0.04 | 0.04 | 58 | 1013.9 |
| 20260905211018 | 85 | 44 | 0.0 | 0.0 | 0.00 | 0.04 | 0.04 | 58 | 1014.0 |
| 20260905210901 | 85 | 19 | 0.0 | 0.0 | 0.00 | 0.04 | 0.04 | 58 | 1014.0 |
| 20260905210742 | 84 | 35 | 0.0 | 0.0 | 0.00 | 0.04 | 0.04 | 58 | 1014.0 |
| 20260905210635 | 84 | 51 | 0.0 | 0.0 | 0.00 | 0.04 | 0.04 | 58 | 1014.0 |
| 20260905210542 | 84 | 24 | 0.0 | 0.0 | 0.00 | 0.04 | 0.04 | 58 | 1014.0 |
| 20260905210442 | 84 | 347 | 0.0 | 0.0 | 0.00 | 0.04 | 0.04 | 58 | 1014.0 |
| 20260905210342 | 84 | 13 | 0.0 | 0.0 | 0.00 | 0.04 | 0.04 | 58 | 1014.1 |
| 20260905210240 | 84 | 9 | 0.0 | 0.0 | 0.00 | 0.04 | 0.04 | 58 | 1014.1 |
| 20260905210218 | 84 | 355 | 0.0 | 0.0 | 0.00 | 0.04 | 0.04 | 57 | 1014.2 |
| 20260905210132 | 85 | 352 | 0.0 | 0.0 | 0.00 | 0.04 | 0.04 | 57 | 1014.1 |
| 20260905205938 | 85 | 12 | 0.0 | 0.0 | 0.00 | 0.04 | 0.04 | 57 | 1014.1 |
| 20260905205834 | 85 | 342 | 0.0 | 0.0 | 0.00 | 0.04 | 0.04 | 57 | 1014.2 |
| 20260905205739 | 85 | 27 | 0.0 | 0.0 | 0.00 | 0.04 | 0.04 | 57 | 1014.2 |
| 20260905205624 | 85 | 350 | 0.0 | 0.0 | 0.00 | 0.04 | 0.04 | 57 | 1014.2 |
| 20260905205550 | 85 | 49 | 0.0 | 0.0 | 0.00 | 0.04 | 0.04 | 57 | 1014.0 |
| 20260905205442 | 85 | 22 | 0.0 | 0.0 | 0.00 | 0.04 | 0.04 | 57 | 1014.0 |
| 20260905205343 | 85 | 360 | 0.0 | 0.0 | 0.00 | 0.04 | 0.04 | 57 | 1014.0 |
| 20260905205242 | 85 | 349 | 0.0 | 0.0 | 0.00 | 0.04 | 0.04 | 57 | 1014.0 |
| 20260905205146 | 85 | 355 | 0.0 | 0.0 | 0.00 | 0.04 | 0.04 | 57 | 1014.1 |
| 20260905205035 | 85 | 345 | 0.0 | 0.0 | 0.00 | 0.04 | 0.04 | 57 | 1014.2 |
| 20260905204944 | 85 | 34 | 0.0 | 0.0 | 0.00 | 0.04 | 0.04 | 57 | 1014.2 |
| 20260905204818 | 85 | 59 | 0.0 | 0.0 | 0.00 | 0.04 | 0.04 | 57 | 1014.2 |
| 20260905204757 | 85 | 36 | 0.0 | 0.0 | 0.00 | 0.04 | 0.04 | 57 | 1014.2 |
| 20260905204642 | 85 | 36 | 0.0 | 0.0 | 0.00 | 0.04 | 0.04 | 57 | 1014.2 |
| 20260905204420 | 85 | 40 | 0.0 | 2.6 | 0.00 | 0.04 | 0.04 | 57 | 1014.1 |
| 20260905204334 | 85 | 360 | 0.0 | 2.6 | 0.00 | 0.04 | 0.04 | 57 | 1014.1 |
| 20260905204242 | 85 | 52 | 0.0 | 2.6 | 0.00 | 0.04 | 0.04 | 58 | 1014.1 |
| 20260905204126 | 85 | 19 | 0.0 | 2.6 | 0.00 | 0.04 | 0.04 | 58 | 1014.0 |
| 20260905204024 | 84 | 5 | 0.0 | 3.5 | 0.00 | 0.04 | 0.04 | 58 | 1014.1 |
| 20260905203943 | 84 | 12 | 0.0 | 4.3 | 0.00 | 0.04 | 0.04 | 58 | 1014.0 |
| 20260905203833 | 84 | 11 | 0.0 | 4.3 | 0.00 | 0.04 | 0.04 | 58 | 1014.1 |
| 20260905203735 | 84 | 32 | 0.0 | 5.2 | 0.00 | 0.04 | 0.04 | 58 | 1014.1 |
| 20260905203635 | 84 | 16 | 0.0 | 5.2 | 0.00 | 0.04 | 0.04 | 58 | 1014.2 |
| 20260905203524 | 84 | 5 | 0.0 | 5.2 | 0.00 | 0.04 | 0.04 | 59 | 1014.2 |
| 20260905203424 | 84 | 52 | 0.0 | 7.0 | 0.00 | 0.04 | 0.04 | 59 | 1014.2 |
| 20260905203324 | 84 | 59 | 0.9 | 7.0 | 0.00 | 0.04 | 0.04 | 59 | 1014.2 |
| 20260905203240 | 84 | 59 | 1.7 | 7.0 | 0.00 | 0.04 | 0.04 | 59 | 1014.2 |
| 20260905203131 | 83 | 59 | 2.6 | 7.0 | 0.00 | 0.04 | 0.04 | 59 | 1014.2 |
| 20260905203127 | 83 | 24 | 2.6 | 7.0 | 0.00 | 0.04 | 0.04 | 60 | 1014.2 |
| 20260905202935 | 83 | 25 | 1.7 | 7.0 | 0.00 | 0.04 | 0.04 | 60 | 1014.2 |
| 20260905202847 | 83 | 23 | 1.7 | 7.0 | 0.00 | 0.04 | 0.04 | 60 | 1014.2 |
| 20260905202732 | 83 | 32 | 1.7 | 7.0 | 0.00 | 0.04 | 0.04 | 60 | 1014.1 |
| 20260905202642 | 82 | 38 | 2.6 | 7.0 | 0.00 | 0.04 | 0.04 | 61 | 1014.1 |
| 20260905202521 | 82 | 40 | 2.6 | 7.0 | 0.00 | 0.04 | 0.04 | 61 | 1014.1 |
| 20260905202425 | 82 | 42 | 2.6 | 5.2 | 0.00 | 0.04 | 0.04 | 61 | 1014.2 |
| 20260905202344 | 82 | 33 | 2.6 | 5.2 | 0.00 | 0.04 | 0.04 | 61 | 1014.2 |
| 20260905202243 | 82 | 13 | 1.7 | 4.3 | 0.00 | 0.04 | 0.04 | 61 | 1014.3 |
| 20260905202138 | 81 | 306 | 1.7 | 4.3 | 0.00 | 0.04 | 0.04 | 62 | 1014.2 |
| 20260905202024 | 81 | 49 | 1.7 | 4.3 | 0.00 | 0.04 | 0.04 | 62 | 1014.2 |
| 20260905201927 | 81 | 51 | 2.6 | 4.3 | 0.00 | 0.04 | 0.04 | 63 | 1014.2 |
| 20260905201827 | 81 | 31 | 2.6 | 4.3 | 0.00 | 0.04 | 0.04 | 63 | 1014.1 |
| 20260905201736 | 81 | 28 | 2.6 | 4.3 | 0.00 | 0.04 | 0.04 | 63 | 1014.2 |
| 20260905201633 | 80 | 42 | 1.7 | 4.3 | 0.00 | 0.04 | 0.04 | 64 | 1014.3 |
| 20260905201432 | 80 | 51 | 1.7 | 4.3 | 0.00 | 0.04 | 0.04 | 63 | 1014.3 |
| 20260905201323 | 80 | 9 | 1.7 | 4.3 | 0.00 | 0.04 | 0.04 | 63 | 1014.3 |
| 20260905201220 | 79 | 5 | 1.7 | 4.3 | 0.00 | 0.04 | 0.04 | 64 | 1014.4 |
| 20260905201136 | 79 | 5 | 1.7 | 5.2 | 0.00 | 0.04 | 0.04 | 64 | 1014.3 |
| 20260905201025 | 79 | 5 | 1.7 | 5.2 | 0.00 | 0.04 | 0.04 | 64 | 1014.4 |
| 20260905200936 | 79 | 5 | 1.7 | 5.2 | 0.00 | 0.04 | 0.04 | 64 | 1014.3 |
| 20260905200828 | 79 | 5 | 3.5 | 5.2 | 0.00 | 0.04 | 0.04 | 64 | 1014.2 |
| 20260905200736 | 79 | 278 | 2.6 | 5.2 | 0.00 | 0.04 | 0.04 | 64 | 1014.2 |
| 20260905200642 | 79 | 281 | 2.6 | 5.2 | 0.00 | 0.04 | 0.04 | 65 | 1014.4 |
| 20260905200518 | 79 | 346 | 1.7 | 5.2 | 0.00 | 0.04 | 0.04 | 65 | 1014.4 |
| 20260905200442 | 78 | 346 | 2.6 | 5.2 | 0.00 | 0.04 | 0.04 | 65 | 1014.4 |
| 20260905200318 | 78 | 348 | 2.6 | 5.2 | 0.00 | 0.04 | 0.04 | 64 | 1014.3 |
| 20260905200223 | 78 | 333 | 1.7 | 5.2 | 0.00 | 0.04 | 0.04 | 66 | 1014.5 |
| 20260905200129 | 78 | 333 | 1.7 | 7.0 | 0.00 | 0.04 | 0.04 | 65 | 1014.6 |
| 20260905195925 | 78 | 338 | 1.7 | 7.0 | 0.00 | 0.04 | 0.04 | 65 | 1014.8 |
| 20260905195817 | 78 | 346 | 1.7 | 7.0 | 0.00 | 0.04 | 0.04 | 67 | 1014.7 |
| 20260905195630 | 78 | 249 | 0.9 | 7.0 | 0.00 | 0.04 | 0.04 | 68 | 1014.9 |
| 20260905195531 | 78 | 283 | 1.7 | 7.0 | 0.00 | 0.04 | 0.04 | 69 | 1014.9 |
| 20260905195424 | 77 | 284 | 1.7 | 7.0 | 0.00 | 0.04 | 0.04 | 69 | 1014.9 |
| 20260905195330 | 77 | 295 | 0.9 | 7.0 | 0.00 | 0.04 | 0.04 | 70 | 1014.9 |
| 20260905195240 | 77 | 279 | 2.6 | 7.0 | 0.00 | 0.04 | 0.04 | 70 | 1014.9 |
| 20260905195134 | 77 | 256 | 2.6 | 7.0 | 0.00 | 0.04 | 0.04 | 70 | 1014.8 |
| 20260905195025 | 76 | 273 | 1.7 | 7.0 | 0.00 | 0.04 | 0.04 | 71 | 1014.9 |
| 20260905194936 | 76 | 273 | 1.7 | 7.0 | 0.00 | 0.04 | 0.04 | 71 | 1014.8 |
| 20260905194837 | 76 | 355 | 0.9 | 7.0 | 0.00 | 0.04 | 0.04 | 72 | 1014.8 |
| 20260905194745 | 76 | 360 | 0.9 | 7.0 | 0.00 | 0.04 | 0.04 | 72 | 1014.8 |
| 20260905194724 | 76 | 360 | 1.7 | 7.0 | 0.00 | 0.04 | 0.04 | 72 | 1014.7 |
| 20260905194636 | 76 | 360 | 2.6 | 7.8 | 0.00 | 0.04 | 0.04 | 72 | 1014.6 |
| 20260905194420 | 76 | 346 | 2.6 | 7.8 | 0.00 | 0.04 | 0.04 | 72 | 1014.6 |
| 20260905194333 | 76 | 350 | 3.5 | 7.8 | 0.00 | 0.04 | 0.04 | 72 | 1014.5 |
| 20260905194230 | 76 | 355 | 3.5 | 7.8 | 0.00 | 0.04 | 0.04 | 72 | 1014.5 |
| 20260905194129 | 76 | 337 | 3.5 | 7.8 | 0.00 | 0.04 | 0.04 | 72 | 1014.5 |
| 20260905194032 | 76 | 344 | 3.5 | 7.8 | 0.00 | 0.04 | 0.04 | 72 | 1014.5 |
| 20260905193935 | 76 | 350 | 4.3 | 7.8 | 0.00 | 0.04 | 0.04 | 72 | 1014.4 |
| 20260905193844 | 76 | 355 | 4.3 | 7.8 | 0.00 | 0.04 | 0.04 | 71 | 1014.4 |
| 20260905193738 | 76 | 334 | 5.2 | 8.7 | 0.00 | 0.04 | 0.04 | 71 | 1014.4 |
| 20260905193624 | 76 | 337 | 4.3 | 8.7 | 0.00 | 0.04 | 0.04 | 71 | 1014.4 |
| 20260905193544 | 76 | 360 | 3.5 | 8.7 | 0.00 | 0.04 | 0.04 | 71 | 1014.4 |
| 20260905193421 | 76 | 360 | 4.3 | 8.7 | 0.00 | 0.04 | 0.04 | 71 | 1014.5 |
| 20260905193335 | 76 | 346 | 4.3 | 9.6 | 0.00 | 0.04 | 0.04 | 71 | 1014.5 |
| 20260905193233 | 76 | 333 | 4.3 | 9.6 | 0.00 | 0.04 | 0.04 | 71 | 1014.4 |
| 20260905193104 | 76 | 28 | 4.3 | 9.6 | 0.00 | 0.04 | 0.04 | 71 | 1014.4 |
| 20260905192930 | 76 | 344 | 5.2 | 10.4 | 0.00 | 0.04 | 0.04 | 71 | 1014.4 |
| 20260905192825 | 76 | 337 | 3.5 | 10.4 | 0.00 | 0.04 | 0.04 | 71 | 1014.3 |
| 20260905192725 | 76 | 28 | 1.7 | 10.4 | 0.00 | 0.04 | 0.04 | 71 | 1014.5 |
| 20260905192646 | 76 | 37 | 3.5 | 10.4 | 0.00 | 0.04 | 0.04 | 70 | 1014.3 |
| 20260905192540 | 76 | 355 | 5.2 | 10.4 | 0.00 | 0.04 | 0.04 | 70 | 1014.4 |
| 20260905192431 | 76 | 347 | 3.5 | 10.4 | 0.00 | 0.04 | 0.04 | 70 | 1014.4 |
| 20260905192336 | 76 | 340 | 2.6 | 10.4 | 0.00 | 0.04 | 0.04 | 71 | 1014.5 |
| 20260905192228 | 76 | 319 | 4.3 | 10.4 | 0.00 | 0.04 | 0.04 | 71 | 1014.5 |
| 20260905192136 | 76 | 288 | 5.2 | 10.4 | 0.00 | 0.04 | 0.04 | 71 | 1014.5 |
| 20260905192033 | 76 | 270 | 3.5 | 10.4 | 0.00 | 0.04 | 0.04 | 71 | 1014.5 |
| 20260905191934 | 76 | 272 | 1.7 | 6.1 | 0.00 | 0.04 | 0.04 | 71 | 1014.5 |
| 20260905191834 | 76 | 342 | 1.7 | 5.2 | 0.00 | 0.04 | 0.04 | 71 | 1014.5 |
| 20260905191755 | 76 | 345 | 1.7 | 5.2 | 0.00 | 0.04 | 0.04 | 71 | 1014.5 |
| 20260905191715 | 76 | 355 | 2.6 | 5.2 | 0.00 | 0.04 | 0.04 | 71 | 1014.4 |
| 20260905191637 | 76 | 5 | 2.6 | 5.2 | 0.00 | 0.04 | 0.04 | 71 | 1014.4 |
| 20260905191442 | 76 | 355 | 2.6 | 5.2 | 0.00 | 0.04 | 0.04 | 71 | 1014.4 |
| 20260905191327 | 76 | 329 | 2.6 | 5.2 | 0.00 | 0.04 | 0.04 | 71 | 1014.5 |
| 20260905191230 | 76 | 349 | 3.5 | 5.2 | 0.00 | 0.04 | 0.04 | 71 | 1014.5 |
| 20260905191135 | 76 | 345 | 2.6 | 5.2 | 0.00 | 0.04 | 0.04 | 71 | 1014.4 |
| 20260905191021 | 75 | 346 | 3.5 | 5.2 | 0.00 | 0.04 | 0.04 | 71 | 1014.4 |
| 20260905190923 | 76 | 334 | 3.5 | 5.2 | 0.00 | 0.04 | 0.04 | 70 | 1014.4 |
| 20260905190836 | 75 | 338 | 2.6 | 4.3 | 0.00 | 0.04 | 0.04 | 70 | 1014.4 |
| 20260905190737 | 76 | 350 | 2.6 | 4.3 | 0.00 | 0.04 | 0.04 | 70 | 1014.3 |
| 20260905190646 | 76 | 9 | 1.7 | 4.3 | 0.00 | 0.04 | 0.04 | 70 | 1014.5 |
| 20260905190522 | 75 | 9 | 1.7 | 4.3 | 0.00 | 0.04 | 0.04 | 71 | 1014.5 |
| 20260905190435 | 75 | 31 | 1.7 | 4.3 | 0.00 | 0.04 | 0.04 | 70 | 1014.5 |
| 20260905190334 | 75 | 355 | 2.6 | 4.3 | 0.00 | 0.04 | 0.04 | 70 | 1014.5 |
| 20260905190258 | 75 | 348 | 2.6 | 4.3 | 0.00 | 0.04 | 0.04 | 71 | 1014.6 |
| 20260905190158 | 75 | 351 | 1.7 | 4.3 | 0.00 | 0.04 | 0.04 | 71 | 1014.8 |
| 20260905185944 | 75 | 5 | 1.7 | 4.3 | 0.00 | 0.04 | 0.04 | 71 | 1014.9 |
| 20260905185835 | 75 | 345 | 2.6 | 4.3 | 0.00 | 0.04 | 0.04 | 70 | 1015.0 |
| 20260905185738 | 75 | 345 | 2.6 | 4.3 | 0.00 | 0.04 | 0.04 | 71 | 1015.0 |
| 20260905185632 | 75 | 339 | 1.7 | 4.3 | 0.00 | 0.04 | 0.04 | 71 | 1015.0 |
| 20260905185534 | 75 | 336 | 1.7 | 4.3 | 0.00 | 0.04 | 0.04 | 71 | 1015.1 |
| 20260905185439 | 75 | 288 | 0.9 | 4.3 | 0.00 | 0.04 | 0.04 | 71 | 1015.1 |
| 20260905185342 | 75 | 288 | 0.0 | 4.3 | 0.00 | 0.04 | 0.04 | 72 | 1015.1 |
| 20260905185236 | 75 | 283 | 0.0 | 4.3 | 0.00 | 0.04 | 0.04 | 71 | 1015.0 |
| 20260905185136 | 75 | 283 | 0.9 | 4.3 | 0.00 | 0.04 | 0.04 | 71 | 1015.1 |
| 20260905185030 | 75 | 283 | 0.9 | 4.3 | 0.02 | 0.04 | 0.04 | 71 | 1015.1 |
| 20260905184927 | 75 | 283 | 1.7 | 4.3 | 0.04 | 0.04 | 0.04 | 72 | 1015.0 |
| 20260905184843 | 75 | 284 | 1.7 | 4.3 | 0.04 | 0.04 | 0.04 | 72 | 1015.1 |
| 20260905184746 | 75 | 284 | 1.7 | 4.3 | 0.04 | 0.04 | 0.04 | 71 | 1015.1 |
| 20260905184717 | 75 | 284 | 2.6 | 4.3 | 0.04 | 0.04 | 0.04 | 72 | 1015.2 |
| 20260905184617 | 75 | 305 | 2.6 | 4.3 | 0.04 | 0.04 | 0.04 | 72 | 1015.3 |
| 20260905184427 | 75 | 288 | 2.6 | 5.2 | 0.04 | 0.04 | 0.04 | 73 | 1015.4 |
| 20260905184324 | 75 | 271 | 1.7 | 5.2 | 0.04 | 0.04 | 0.04 | 73 | 1015.4 |
| 20260905184241 | 75 | 269 | 0.9 | 3.5 | 0.04 | 0.04 | 0.04 | 74 | 1015.5 |
| 20260905184124 | 75 | 173 | 0.9 | 4.3 | 0.04 | 0.04 | 0.04 | 74 | 1015.4 |
| 20260905184035 | 75 | 173 | 0.9 | 4.3 | 0.04 | 0.04 | 0.04 | 74 | 1015.5 |
| 20260905183927 | 75 | 173 | 0.0 | 4.3 | 0.04 | 0.04 | 0.04 | 74 | 1015.5 |
| 20260905183835 | 75 | 173 | 0.0 | 4.3 | 0.04 | 0.04 | 0.04 | 74 | 1015.5 |
| 20260905183727 | 75 | 173 | 0.0 | 4.3 | 0.04 | 0.04 | 0.04 | 74 | 1015.5 |
| 20260905183618 | 75 | 173 | 0.0 | 4.3 | 0.04 | 0.04 | 0.04 | 74 | 1015.5 |
| 20260905183533 | 75 | 173 | 0.0 | 6.1 | 0.04 | 0.04 | 0.04 | 73 | 1015.5 |
| 20260905183443 | 75 | 173 | 0.0 | 6.1 | 0.04 | 0.04 | 0.04 | 73 | 1015.5 |
| 20260905183325 | 75 | 173 | 1.7 | 6.1 | 0.04 | 0.04 | 0.04 | 73 | 1015.4 |
| 20260905183229 | 75 | 173 | 3.5 | 7.0 | 0.04 | 0.04 | 0.04 | 73 | 1015.3 |
| 20260905183151 | 75 | 167 | 3.5 | 7.0 | 0.04 | 0.04 | 0.04 | 73 | 1015.2 |
| 20260905183108 | 75 | 165 | 2.6 | 7.0 | 0.04 | 0.04 | 0.04 | 73 | 1015.1 |
| 20260905182935 | 76 | 148 | 1.7 | 7.0 | 0.04 | 0.04 | 0.04 | 73 | 1015.1 |
| 20260905182848 | 76 | 101 | 3.5 | 7.0 | 0.04 | 0.04 | 0.04 | 72 | 1015.1 |
| 20260905182736 | 76 | 101 | 3.5 | 7.0 | 0.04 | 0.04 | 0.04 | 72 | 1015.0 |
| 20260905182645 | 76 | 96 | 3.5 | 7.0 | 0.04 | 0.04 | 0.04 | 73 | 1015.0 |
| 20260905182546 | 76 | 165 | 3.5 | 7.0 | 0.04 | 0.04 | 0.04 | 72 | 1014.9 |
| 20260905182418 | 76 | 165 | 3.5 | 7.0 | 0.04 | 0.04 | 0.04 | 72 | 1014.8 |
| 20260905182342 | 76 | 155 | 3.5 | 7.0 | 0.04 | 0.04 | 0.04 | 71 | 1014.7 |
| 20260905182229 | 77 | 154 | 0.9 | 4.3 | 0.04 | 0.04 | 0.04 | 70 | 1014.7 |
| 20260905182143 | 76 | 331 | 0.0 | 5.2 | 0.04 | 0.04 | 0.04 | 68 | 1014.6 |
| 20260905182036 | 76 | 333 | 0.0 | 7.0 | 0.04 | 0.04 | 0.04 | 67 | 1014.6 |
| 20260905181926 | 76 | 333 | 0.0 | 7.8 | 0.04 | 0.04 | 0.04 | 67 | 1014.7 |
| 20260905181823 | 76 | 333 | 1.7 | 7.8 | 0.04 | 0.04 | 0.04 | 66 | 1014.7 |
| 20260905181730 | 76 | 333 | 1.7 | 7.8 | 0.04 | 0.04 | 0.04 | 67 | 1014.7 |
| 20260905181718 | 77 | 327 | 1.7 | 7.8 | 0.04 | 0.04 | 0.04 | 67 | 1014.8 |
| 20260905181602 | 76 | 327 | 0.9 | 7.8 | 0.04 | 0.04 | 0.04 | 66 | 1014.7 |
| 20260905181427 | 77 | 328 | 0.9 | 12.2 | 0.04 | 0.04 | 0.04 | 66 | 1014.7 |
| 20260905181328 | 77 | 324 | 2.6 | 12.2 | 0.04 | 0.04 | 0.04 | 66 | 1014.7 |
| 20260905181217 | 77 | 324 | 3.5 | 12.2 | 0.04 | 0.04 | 0.04 | 66 | 1014.7 |
| 20260905181118 | 77 | 333 | 3.5 | 12.2 | 0.04 | 0.04 | 0.04 | 67 | 1014.8 |
| 20260905181036 | 77 | 360 | 2.6 | 12.2 | 0.04 | 0.04 | 0.04 | 67 | 1014.8 |
| 20260905180933 | 77 | 342 | 2.6 | 12.2 | 0.04 | 0.04 | 0.04 | 67 | 1014.9 |
| 20260905180826 | 77 | 333 | 3.5 | 12.2 | 0.04 | 0.04 | 0.04 | 67 | 1014.9 |
| 20260905180718 | 77 | 355 | 4.3 | 12.2 | 0.04 | 0.04 | 0.04 | 66 | 1015.0 |
| 20260905180637 | 77 | 330 | 4.3 | 13.0 | 0.04 | 0.04 | 0.04 | 66 | 1015.1 |
| 20260905180524 | 77 | 24 | 5.2 | 13.0 | 0.04 | 0.04 | 0.04 | 66 | 1015.2 |
| 20260905180435 | 77 | 5 | 4.3 | 13.0 | 0.04 | 0.04 | 0.04 | 67 | 1015.2 |
| 20260905180334 | 77 | 5 | 4.3 | 13.0 | 0.04 | 0.04 | 0.04 | 67 | 1015.2 |
| 20260905180248 | 77 | 31 | 4.3 | 13.0 | 0.04 | 0.04 | 0.04 | 67 | 1015.3 |
| 20260905180136 | 78 | 5 | 6.1 | 13.0 | 0.04 | 0.04 | 0.04 | 67 | 1015.5 |
| 20260905175922 | 78 | 360 | 7.0 | 13.0 | 0.04 | 0.04 | 0.04 | 66 | 1015.5 |
| 20260905175841 | 78 | 21 | 7.0 | 13.0 | 0.04 | 0.04 | 0.04 | 66 | 1015.6 |
| 20260905175736 | 79 | 45 | 5.2 | 12.2 | 0.04 | 0.04 | 0.04 | 68 | 1015.5 |
| 20260905175636 | 79 | 45 | 2.6 | 7.8 | 0.04 | 0.04 | 0.04 | 68 | 1015.4 |
| 20260905175536 | 79 | 355 | 0.0 | 5.2 | 0.04 | 0.04 | 0.04 | 67 | 1015.5 |
| 20260905175442 | 80 | 306 | 0.0 | 0.0 | 0.04 | 0.04 | 0.04 | 65 | 1015.1 |
| 20260905175324 | 80 | 38 | 0.0 | 0.0 | 0.04 | 0.04 | 0.04 | 65 | 1015.1 |
| 20260905175228 | 81 | 347 | 0.0 | 0.0 | 0.04 | 0.04 | 0.04 | 64 | 1015.0 |
| 20260905175133 | 82 | 63 | 0.0 | 0.0 | 0.02 | 0.02 | 0.02 | 63 | 1014.9 |
| 20260905175040 | 83 | 30 | 0.0 | 0.0 | 0.00 | 0.00 | 0.00 | 58 | 1014.9 |
| 20260905174926 | 83 | 36 | 0.0 | 0.0 | 0.00 | 0.00 | 0.00 | 56 | 1015.1 |
| 20260905174843 | 84 | 33 | 0.0 | 0.0 | 0.00 | 0.00 | 0.00 | 54 | 1015.2 |
| 20260905174724 | 85 | 64 | 0.0 | 0.0 | 0.00 | 0.00 | 0.00 | 53 | 1015.0 |
| 20260905174718 | 85 | 307 | 0.0 | 0.0 | 0.00 | 0.00 | 0.00 | 52 | 1014.9 |
| 20260905174623 | 86 | 12 | 0.0 | 0.0 | 0.00 | 0.00 | 0.00 | 51 | 1014.8 |
| 20260905174420 | 87 | 50 | 0.0 | 0.0 | 0.00 | 0.00 | 0.00 | 50 | 1014.6 |
| 20260905174329 | 87 | 360 | 0.0 | 0.0 | 0.00 | 0.00 | 0.00 | 50 | 1014.7 |
| 20260905174228 | 88 | 10 | 0.0 | 0.0 | 0.00 | 0.00 | 0.00 | 50 | 1014.9 |
| 20260905174146 | 88 | 338 | 0.0 | 0.0 | 0.00 | 0.00 | 0.00 | 51 | 1015.0 |
| 20260905174025 | 88 | 336 | 0.0 | 0.0 | 0.00 | 0.00 | 0.00 | 53 | 1015.2 |
| 20260905173931 | 88 | 309 | 0.0 | 0.0 | 0.00 | 0.00 | 0.00 | 55 | 1015.4 |
| 20260905173824 | 88 | 27 | 0.0 | 0.0 | 0.00 | 0.00 | 0.00 | 57 | 1015.2 |
| 20260905173741 | 88 | 23 | 0.0 | 0.0 | 0.00 | 0.00 | 0.00 | 57 | 1015.2 |
| 20260905173641 | 88 | 330 | 0.0 | 0.0 | 0.00 | 0.00 | 0.00 | 57 | 1015.1 |
| 20260905173525 | 88 | 339 | 0.0 | 0.0 | 0.00 | 0.00 | 0.00 | 57 | 1015.1 |
| 20260905173433 | 88 | 321 | 0.0 | 0.0 | 0.00 | 0.00 | 0.00 | 57 | 1015.1 |
| 20260905173327 | 88 | 327 | 0.0 | 0.0 | 0.00 | 0.00 | 0.00 | 57 | 1015.2 |
| 20260905173241 | 88 | 319 | 0.0 | 0.0 | 0.00 | 0.00 | 0.00 | 57 | 1015.4 |
| 20260905173219 | 88 | 333 | 0.0 | 0.0 | 0.00 | 0.00 | 0.00 | 57 | 1015.3 |
| 20260905173118 | 88 | 336 | 0.0 | 0.0 | 0.00 | 0.00 | 0.00 | 57 | 1015.4 |
| 20260905172926 | 88 | 342 | 0.0 | 0.0 | 0.00 | 0.00 | 0.00 | 57 | 1015.4 |
| 20260905172834 | 87 | 324 | 0.0 | 0.0 | 0.00 | 0.00 | 0.00 | 57 | 1015.4 |
| 20260905172724 | 87 | 324 | 0.0 | 0.0 | 0.00 | 0.00 | 0.00 | 57 | 1015.3 |
| 20260905172642 | 87 | 324 | 0.0 | 0.0 | 0.00 | 0.00 | 0.00 | 57 | 1015.3 |
| 20260905172547 | 87 | 360 | 0.0 | 0.0 | 0.00 | 0.00 | 0.00 | 57 | 1015.2 |
| 20260905172423 | 87 | 340 | 0.0 | 0.0 | 0.00 | 0.00 | 0.00 | 57 | 1015.2 |
| 20260905172325 | 87 | 348 | 0.0 | 0.0 | 0.00 | 0.00 | 0.00 | 57 | 1015.3 |
| 20260905172229 | 87 | 12 | 0.0 | 0.0 | 0.00 | 0.00 | 0.00 | 57 | 1015.3 |
| 20260905172136 | 87 | 324 | 0.0 | 0.0 | 0.00 | 0.00 | 0.00 | 57 | 1015.2 |
| 20260905172028 | 87 | 287 | 0.0 | 0.0 | 0.00 | 0.00 | 0.00 | 57 | 1015.2 |
| 20260905171920 | 88 | 5 | 0.0 | 0.0 | 0.00 | 0.00 | 0.00 | 57 | 1015.2 |
| 20260905171824 | 88 | 5 | 0.0 | 0.0 | 0.00 | 0.00 | 0.00 | 56 | 1015.2 |
| 20260905171742 | 88 | 317 | 0.0 | 0.0 | 0.00 | 0.00 | 0.00 | 57 | 1015.3 |
| 20260905171642 | 88 | 312 | 0.0 | 0.0 | 0.00 | 0.00 | 0.00 | 57 | 1015.4 |
| 20260905171636 | 88 | 326 | 0.0 | 0.0 | 0.00 | 0.00 | 0.00 | 57 | 1015.5 |
| 20260905171427 | 88 | 259 | 0.0 | 0.0 | 0.00 | 0.00 | 0.00 | 57 | 1015.5 |
| 20260905171325 | 88 | 257 | 0.0 | 0.0 | 0.00 | 0.00 | 0.00 | 57 | 1015.5 |
| 20260905171226 | 88 | 302 | 0.0 | 0.0 | 0.00 | 0.00 | 0.00 | 57 | 1015.6 |
| 20260905171142 | 88 | 302 | 0.0 | 0.0 | 0.00 | 0.00 | 0.00 | 56 | 1015.7 |
| 20260905171037 | 88 | 281 | 0.0 | 0.0 | 0.00 | 0.00 | 0.00 | 56 | 1015.8 |
| 20260905170924 | 88 | 304 | 0.0 | 0.0 | 0.00 | 0.00 | 0.00 | 56 | 1015.6 |
| 20260905170831 | 88 | 273 | 0.0 | 0.0 | 0.00 | 0.00 | 0.00 | 56 | 1015.5 |
| 20260905170742 | 88 | 278 | 0.0 | 0.0 | 0.00 | 0.00 | 0.00 | 56 | 1015.5 |
| 20260905170619 | 88 | 277 | 0.0 | 0.0 | 0.00 | 0.00 | 0.00 | 56 | 1015.5 |
| 20260905170539 | 88 | 261 | 0.0 | 0.0 | 0.00 | 0.00 | 0.00 | 57 | 1015.6 |
| 20260905170441 | 87 | 258 | 0.0 | 0.0 | 0.00 | 0.00 | 0.00 | 57 | 1015.8 |
| 20260905170337 | 87 | 308 | 0.0 | 0.0 | 0.00 | 0.00 | 0.00 | 57 | 1015.8 |
| 20260905170236 | 87 | 288 | 0.0 | 0.0 | 0.00 | 0.00 | 0.00 | 57 | 1016.0 |
| 20260905170141 | 87 | 274 | 0.0 | 0.0 | 0.00 | 0.00 | 0.00 | 58 | 1016.2 |
| 20260905170113 | 87 | 284 | 0.0 | 0.0 | 0.00 | 0.00 | 0.00 | 58 | 1016.1 |
| 20260905165925 | 87 | 293 | 0.0 | 0.0 | 0.00 | 0.00 | 0.00 | 58 | 1016.1 |
| 20260905165829 | 87 | 295 | 0.0 | 0.0 | 0.00 | 0.00 | 0.00 | 58 | 1016.0 |
| 20260905165742 | 87 | 332 | 0.0 | 0.0 | 0.00 | 0.00 | 0.00 | 58 | 1015.8 |
| 20260905165625 | 87 | 337 | 0.0 | 0.0 | 0.00 | 0.00 | 0.00 | 58 | 1015.8 |
| 20260905165547 | 87 | 323 | 0.0 | 0.0 | 0.00 | 0.00 | 0.00 | 58 | 1015.7 |
| 20260905165424 | 87 | 350 | 0.0 | 0.0 | 0.00 | 0.00 | 0.00 | 58 | 1015.6 |
| 20260905165328 | 87 | 343 | 0.0 | 0.0 | 0.00 | 0.00 | 0.00 | 58 | 1015.8 |
| 20260905165218 | 87 | 349 | 0.0 | 0.0 | 0.00 | 0.00 | 0.00 | 59 | 1015.6 |
| 20260905165138 | 87 | 331 | 0.0 | 0.0 | 0.00 | 0.00 | 0.00 | 58 | 1015.5 |
| 20260905165053 | 87 | 334 | 0.0 | 0.0 | 0.00 | 0.00 | 0.00 | 58 | 1015.4 |
| 20260905164933 | 87 | 339 | 0.0 | 0.0 | 0.00 | 0.00 | 0.00 | 58 | 1015.3 |
| 20260905164836 | 87 | 355 | 0.0 | 0.0 | 0.00 | 0.00 | 0.00 | 58 | 1015.4 |
| 20260905164731 | 87 | 355 | 0.0 | 0.0 | 0.00 | 0.00 | 0.00 | 57 | 1015.3 |
| 20260905164718 | 87 | 320 | 0.0 | 0.0 | 0.00 | 0.00 | 0.00 | 57 | 1015.3 |
| 20260905164559 | 87 | 343 | 0.0 | 0.0 | 0.00 | 0.00 | 0.00 | 57 | 1015.2 |
| 20260905164430 | 87 | 314 | 0.0 | 0.0 | 0.00 | 0.00 | 0.00 | 57 | 1015.2 |
| 20260905164329 | 87 | 360 | 0.0 | 0.0 | 0.00 | 0.00 | 0.00 | 57 | 1015.2 |
| 20260905164222 | 87 | 348 | 0.0 | 0.0 | 0.00 | 0.00 | 0.00 | 57 | 1015.3 |
| 20260905164131 | 87 | 355 | 0.0 | 0.0 | 0.00 | 0.00 | 0.00 | 58 | 1015.3 |
| 20260905164030 | 87 | 338 | 0.0 | 0.0 | 0.00 | 0.00 | 0.00 | 57 | 1015.2 |
| 20260905163927 | 87 | 5 | 0.0 | 0.0 | 0.00 | 0.00 | 0.00 | 57 | 1015.1 |
| 20260905163836 | 87 | 59 | 0.0 | 0.0 | 0.00 | 0.00 | 0.00 | 57 | 1015.1 |
| 20260905163729 | 87 | 333 | 0.0 | 0.0 | 0.00 | 0.00 | 0.00 | 57 | 1015.2 |
| 20260905163627 | 87 | 340 | 0.0 | 0.0 | 0.00 | 0.00 | 0.00 | 57 | 1015.3 |
| 20260905163518 | 87 | 5 | 0.0 | 0.0 | 0.00 | 0.00 | 0.00 | 57 | 1015.5 |
| 20260905163442 | 87 | 331 | 0.0 | 0.0 | 0.00 | 0.00 | 0.00 | 57 | 1015.6 |
| 20260905163346 | 87 | 69 | 0.0 | 0.0 | 0.00 | 0.00 | 0.00 | 57 | 1015.7 |
| 20260905163229 | 87 | 301 | 0.0 | 0.0 | 0.00 | 0.00 | 0.00 | 57 | 1015.7 |
| 20260905163149 | 87 | 360 | 0.0 | 0.0 | 0.00 | 0.00 | 0.00 | 58 | 1015.8 |
| 20260905163128 | 87 | 342 | 0.0 | 0.0 | 0.00 | 0.00 | 0.00 | 58 | 1015.9 |
| 20260905162931 | 87 | 338 | 0.0 | 0.0 | 0.00 | 0.00 | 0.00 | 57 | 1015.9 |
| 20260905162848 | 87 | 315 | 0.0 | 0.0 | 0.00 | 0.00 | 0.00 | 58 | 1016.0 |
| 20260905162738 | 87 | 15 | 0.0 | 0.0 | 0.00 | 0.00 | 0.00 | 57 | 1016.0 |
| 20260905162619 | 87 | 16 | 0.0 | 0.0 | 0.00 | 0.00 | 0.00 | 58 | 1016.0 |
| 20260905162529 | 87 | 344 | 0.0 | 0.0 | 0.00 | 0.00 | 0.00 | 58 | 1016.0 |
| 20260905162437 | 87 | 321 | 0.0 | 0.0 | 0.00 | 0.00 | 0.00 | 59 | 1016.1 |
| 20260905162342 | 86 | 360 | 0.0 | 0.0 | 0.00 | 0.00 | 0.00 | 59 | 1016.2 |
| 20260905162225 | 86 | 348 | 0.0 | 0.0 | 0.00 | 0.00 | 0.00 | 59 | 1016.1 |
| 20260905162127 | 86 | 34 | 0.0 | 0.0 | 0.00 | 0.00 | 0.00 | 59 | 1016.1 |
| 20260905162042 | 86 | 42 | 0.0 | 0.0 | 0.00 | 0.00 | 0.00 | 59 | 1016.1 |
| 20260905161936 | 86 | 342 | 0.0 | 0.0 | 0.00 | 0.00 | 0.00 | 60 | 1015.9 |
| 20260905161820 | 86 | 335 | 0.0 | 0.0 | 0.00 | 0.00 | 0.00 | 61 | 1016.0 |
| 20260905161741 | 86 | 344 | 0.0 | 0.0 | 0.00 | 0.00 | 0.00 | 61 | 1016.0 |
| 20260905161645 | 86 | 330 | 0.0 | 0.0 | 0.00 | 0.00 | 0.00 | 61 | 1016.1 |
| 20260905161603 | 86 | 336 | 0.0 | 0.0 | 0.00 | 0.00 | 0.00 | 61 | 1016.3 |
| 20260905161424 | 86 | 325 | 0.0 | 0.0 | 0.00 | 0.00 | 0.00 | 61 | 1016.2 |
| 20260905161325 | 86 | 267 | 0.0 | 0.0 | 0.00 | 0.00 | 0.00 | 62 | 1016.2 |
| 20260905161225 | 86 | 271 | 0.0 | 0.0 | 0.00 | 0.00 | 0.00 | 62 | 1016.2 |
| 20260905161145 | 85 | 346 | 0.0 | 0.0 | 0.00 | 0.00 | 0.00 | 62 | 1016.1 |
| 20260905161021 | 85 | 344 | 0.0 | 0.0 | 0.00 | 0.00 | 0.00 | 62 | 1016.1 |
| 20260905160930 | 85 | 342 | 0.0 | 0.0 | 0.00 | 0.00 | 0.00 | 63 | 1016.0 |
| 20260905160822 | 85 | 344 | 0.0 | 0.0 | 0.00 | 0.00 | 0.00 | 63 | 1015.9 |
| 20260905160744 | 85 | 336 | 0.0 | 0.0 | 0.00 | 0.00 | 0.00 | 62 | 1016.1 |
| 20260905160630 | 85 | 333 | 0.0 | 0.0 | 0.00 | 0.00 | 0.00 | 62 | 1016.0 |
| 20260905160521 | 85 | 334 | 0.0 | 0.0 | 0.00 | 0.00 | 0.00 | 61 | 1016.0 |
| 20260905160430 | 85 | 331 | 0.0 | 0.0 | 0.00 | 0.00 | 0.00 | 62 | 1016.0 |
| 20260905160322 | 85 | 17 | 0.0 | 0.0 | 0.00 | 0.00 | 0.00 | 62 | 1016.1 |
| 20260905160245 | 85 | 334 | 0.0 | 0.0 | 0.00 | 0.00 | 0.00 | 62 | 1016.1 |
| 20260905160138 | 85 | 344 | 0.0 | 0.0 | 0.00 | 0.00 | 0.00 | 62 | 1016.2 |
| 20260905155936 | 85 | 355 | 0.0 | 0.0 | 0.00 | 0.00 | 0.00 | 64 | 1016.4 |
| 20260905155826 | 85 | 335 | 0.0 | 0.0 | 0.00 | 0.00 | 0.00 | 64 | 1016.4 |
| 20260905155729 | 85 | 346 | 0.0 | 0.0 | 0.00 | 0.00 | 0.00 | 64 | 1016.3 |
| 20260905155625 | 85 | 333 | 0.0 | 0.0 | 0.00 | 0.00 | 0.00 | 63 | 1016.2 |
| 20260905155529 | 85 | 355 | 0.0 | 0.0 | 0.00 | 0.00 | 0.00 | 64 | 1016.2 |
| 20260905155436 | 85 | 348 | 0.0 | 0.0 | 0.00 | 0.00 | 0.00 | 64 | 1016.3 |
| 20260905155328 | 85 | 337 | 0.0 | 0.0 | 0.00 | 0.00 | 0.00 | 64 | 1016.2 |
| 20260905155247 | 85 | 343 | 0.0 | 0.0 | 0.00 | 0.00 | 0.00 | 64 | 1016.2 |
| 20260905155130 | 85 | 355 | 0.0 | 0.0 | 0.00 | 0.00 | 0.00 | 64 | 1016.2 |
| 20260905155028 | 85 | 10 | 0.0 | 0.0 | 0.00 | 0.00 | 0.00 | 64 | 1016.4 |
| 20260905154936 | 85 | 340 | 0.0 | 0.0 | 0.00 | 0.00 | 0.00 | 64 | 1016.4 |
| 20260905154836 | 85 | 47 | 0.0 | 0.0 | 0.00 | 0.00 | 0.00 | 64 | 1016.3 |
| 20260905154721 | 84 | 24 | 0.0 | 0.0 | 0.00 | 0.00 | 0.00 | 64 | 1016.3 |
| 20260905154632 | 84 | 24 | 0.0 | 0.0 | 0.00 | 0.00 | 0.00 | 63 | 1016.2 |
| 20260905154623 | 84 | 338 | 0.0 | 0.0 | 0.00 | 0.00 | 0.00 | 64 | 1016.2 |
| 20260905154444 | 84 | 341 | 0.0 | 0.0 | 0.00 | 0.00 | 0.00 | 65 | 1016.3 |
| 20260905154333 | 84 | 355 | 0.0 | 0.0 | 0.00 | 0.00 | 0.00 | 64 | 1016.2 |
| 20260905154219 | 84 | 344 | 0.0 | 0.0 | 0.00 | 0.00 | 0.00 | 64 | 1016.2 |
| 20260905154126 | 84 | 338 | 0.0 | 0.0 | 0.00 | 0.00 | 0.00 | 64 | 1016.3 |
| 20260905154024 | 84 | 315 | 0.0 | 0.0 | 0.00 | 0.00 | 0.00 | 65 | 1016.3 |
| 20260905153935 | 84 | 328 | 0.0 | 0.0 | 0.00 | 0.00 | 0.00 | 65 | 1016.3 |
| 20260905153830 | 84 | 355 | 0.0 | 0.0 | 0.00 | 0.00 | 0.00 | 65 | 1016.3 |
| 20260905153742 | 84 | 338 | 0.0 | 0.0 | 0.00 | 0.00 | 0.00 | 65 | 1016.3 |
| 20260905153637 | 84 | 313 | 0.0 | 0.0 | 0.00 | 0.00 | 0.00 | 65 | 1016.3 |
| 20260905153522 | 84 | 344 | 0.0 | 0.0 | 0.00 | 0.00 | 0.00 | 65 | 1016.3 |
| 20260905153446 | 84 | 338 | 0.0 | 0.0 | 0.00 | 0.00 | 0.00 | 65 | 1016.3 |
| 20260905153348 | 84 | 345 | 0.0 | 0.0 | 0.00 | 0.00 | 0.00 | 65 | 1016.3 |
| 20260905153219 | 84 | 335 | 0.0 | 0.0 | 0.00 | 0.00 | 0.00 | 65 | 1016.3 |
| 20260905153217 | 84 | 302 | 0.0 | 0.0 | 0.00 | 0.00 | 0.00 | 65 | 1016.2 |
| 20260905153122 | 84 | 349 | 0.0 | 0.0 | 0.00 | 0.00 | 0.00 | 65 | 1016.2 |
| 20260905152945 | 84 | 321 | 0.0 | 0.0 | 0.00 | 0.00 | 0.00 | 65 | 1016.3 |
| 20260905152824 | 84 | 5 | 0.0 | 0.0 | 0.00 | 0.00 | 0.00 | 66 | 1016.3 |
| 20260905152730 | 84 | 319 | 0.0 | 0.0 | 0.00 | 0.00 | 0.00 | 66 | 1016.2 |
| 20260905152628 | 84 | 321 | 0.0 | 0.0 | 0.00 | 0.00 | 0.00 | 66 | 1016.2 |
| 20260905152524 | 84 | 328 | 0.0 | 0.0 | 0.00 | 0.00 | 0.00 | 66 | 1016.2 |
| 20260905152437 | 84 | 341 | 0.0 | 0.0 | 0.00 | 0.00 | 0.00 | 66 | 1016.1 |
| 20260905152334 | 84 | 314 | 0.0 | 0.0 | 0.00 | 0.00 | 0.00 | 66 | 1016.1 |
| 20260905152236 | 84 | 5 | 0.0 | 0.0 | 0.00 | 0.00 | 0.00 | 66 | 1016.0 |
| 20260905152121 | 84 | 344 | 0.0 | 0.0 | 0.00 | 0.00 | 0.00 | 66 | 1016.1 |
| 20260905152031 | 84 | 310 | 0.0 | 0.0 | 0.00 | 0.00 | 0.00 | 66 | 1016.2 |
| 20260905151930 | 84 | 340 | 0.0 | 0.0 | 0.00 | 0.00 | 0.00 | 66 | 1016.2 |
| 20260905151819 | 84 | 226 | 0.0 | 0.0 | 0.00 | 0.00 | 0.00 | 66 | 1016.1 |
| 20260905151742 | 84 | 273 | 0.0 | 0.0 | 0.00 | 0.00 | 0.00 | 67 | 1016.1 |
| 20260905151648 | 84 | 281 | 0.0 | 0.0 | 0.00 | 0.00 | 0.00 | 66 | 1016.1 |
| 20260905151625 | 84 | 323 | 0.0 | 0.0 | 0.00 | 0.00 | 0.00 | 67 | 1016.1 |
| 20260905151425 | 84 | 334 | 0.0 | 0.0 | 0.00 | 0.00 | 0.00 | 67 | 1016.1 |
| 20260905151347 | 84 | 342 | 0.0 | 0.0 | 0.00 | 0.00 | 0.00 | 68 | 1016.2 |
| 20260905151237 | 84 | 275 | 0.0 | 0.0 | 0.00 | 0.00 | 0.00 | 68 | 1016.2 |
| 20260905151141 | 84 | 268 | 0.0 | 0.0 | 0.00 | 0.00 | 0.00 | 68 | 1016.3 |
| 20260905151022 | 84 | 283 | 0.0 | 0.0 | 0.00 | 0.00 | 0.00 | 68 | 1016.3 |
| 20260905150929 | 83 | 273 | 0.0 | 0.0 | 0.00 | 0.00 | 0.00 | 68 | 1016.3 |
| 20260905150824 | 83 | 270 | 0.0 | 0.0 | 0.00 | 0.00 | 0.00 | 68 | 1016.3 |
| 20260905150720 | 83 | 293 | 0.0 | 0.0 | 0.00 | 0.00 | 0.00 | 68 | 1016.2 |
| 20260905150620 | 83 | 333 | 0.0 | 0.0 | 0.00 | 0.00 | 0.00 | 68 | 1016.2 |
| 20260905150523 | 83 | 352 | 0.0 | 0.0 | 0.00 | 0.00 | 0.00 | 69 | 1016.2 |
| 20260905150424 | 83 | 343 | 0.0 | 0.0 | 0.00 | 0.00 | 0.00 | 69 | 1016.3 |
| 20260905150324 | 83 | 355 | 0.0 | 0.0 | 0.00 | 0.00 | 0.00 | 69 | 1016.2 |
| 20260905150236 | 83 | 360 | 0.0 | 0.0 | 0.00 | 0.00 | 0.00 | 69 | 1016.3 |
| 20260905150137 | 83 | 309 | 0.0 | 0.0 | 0.00 | 0.00 | 0.00 | 69 | 1016.2 |
| 20260905150121 | 83 | 317 | 0.0 | 0.0 | 0.00 | 0.00 | 0.00 | 69 | 1016.2 |
| 20260905145917 | 83 | 318 | 0.0 | 0.0 | 0.00 | 0.00 | 0.00 | 69 | 1016.1 |
| 20260905145736 | 83 | 329 | 0.0 | 0.0 | 0.00 | 0.00 | 0.00 | 69 | 1016.0 |
| 20260905145638 | 83 | 337 | 0.0 | 0.0 | 0.00 | 0.00 | 0.00 | 69 | 1016.0 |
| 20260905145532 | 83 | 325 | 0.0 | 0.0 | 0.00 | 0.00 | 0.00 | 70 | 1016.2 |
| 20260905145417 | 82 | 290 | 0.0 | 0.0 | 0.00 | 0.00 | 0.00 | 71 | 1016.3 |
| 20260905145335 | 82 | 283 | 0.0 | 0.0 | 0.00 | 0.00 | 0.00 | 71 | 1016.4 |
| 20260905145231 | 82 | 350 | 0.0 | 0.0 | 0.00 | 0.00 | 0.00 | 72 | 1016.3 |
| 20260905145147 | 82 | 352 | 0.0 | 0.0 | 0.00 | 0.00 | 0.00 | 72 | 1016.3 |
| 20260905145041 | 81 | 348 | 0.0 | 0.0 | 0.00 | 0.00 | 0.00 | 73 | 1016.3 |
| 20260905144925 | 81 | 341 | 0.0 | 0.0 | 0.00 | 0.00 | 0.00 | 72 | 1016.2 |
| 20260905144831 | 81 | 316 | 0.0 | 0.0 | 0.00 | 0.00 | 0.00 | 72 | 1016.2 |
| 20260905144733 | 81 | 316 | 0.0 | 0.0 | 0.00 | 0.00 | 0.00 | 72 | 1016.1 |
| 20260905144650 | 81 | 317 | 0.0 | 0.0 | 0.00 | 0.00 | 0.00 | 73 | 1016.1 |
| 20260905144628 | 81 | 346 | 0.0 | 0.0 | 0.00 | 0.00 | 0.00 | 73 | 1016.1 |
| 20260905144425 | 80 | 31 | 0.0 | 0.0 | 0.00 | 0.00 | 0.00 | 73 | 1016.1 |
| 20260905144337 | 80 | 336 | 0.0 | 0.0 | 0.00 | 0.00 | 0.00 | 73 | 1016.0 |
| 20260905144230 | 80 | 355 | 0.0 | 0.0 | 0.00 | 0.00 | 0.00 | 73 | 1016.0 |
| 20260905144125 | 80 | 337 | 0.0 | 0.0 | 0.00 | 0.00 | 0.00 | 73 | 1016.0 |
| 20260905144040 | 80 | 327 | 0.0 | 0.0 | 0.00 | 0.00 | 0.00 | 73 | 1016.0 |
| 20260905143923 | 80 | 328 | 0.0 | 0.0 | 0.00 | 0.00 | 0.00 | 74 | 1016.0 |
| 20260905143821 | 80 | 350 | 0.0 | 0.0 | 0.00 | 0.00 | 0.00 | 74 | 1016.0 |
| 20260905143731 | 80 | 327 | 0.0 | 0.0 | 0.00 | 0.00 | 0.00 | 73 | 1016.0 |
| 20260905143641 | 80 | 346 | 0.0 | 0.0 | 0.00 | 0.00 | 0.00 | 73 | 1016.0 |
| 20260905143522 | 80 | 327 | 0.0 | 0.0 | 0.00 | 0.00 | 0.00 | 73 | 1016.0 |
| 20260905143448 | 80 | 355 | 0.0 | 0.0 | 0.00 | 0.00 | 0.00 | 73 | 1016.0 |
| 20260905143322 | 80 | 342 | 0.0 | 0.0 | 0.00 | 0.00 | 0.00 | 73 | 1016.1 |
| 20260905143245 | 80 | 9 | 0.0 | 0.0 | 0.00 | 0.00 | 0.00 | 73 | 1016.0 |
| 20260905143148 | 80 | 333 | 0.0 | 0.0 | 0.00 | 0.00 | 0.00 | 73 | 1016.1 |
| 20260905143121 | 80 | 339 | 0.0 | 0.0 | 0.00 | 0.00 | 0.00 | 73 | 1016.2 |
| 20260905142945 | 80 | 329 | 0.0 | 0.0 | 0.00 | 0.00 | 0.00 | 73 | 1016.1 |
| 20260905142819 | 80 | 329 | 0.0 | 0.0 | 0.00 | 0.00 | 0.00 | 73 | 1016.2 |
| 20260905142737 | 80 | 342 | 0.0 | 0.0 | 0.00 | 0.00 | 0.00 | 73 | 1016.3 |
| 20260905142624 | 80 | 318 | 0.0 | 0.0 | 0.00 | 0.00 | 0.00 | 74 | 1016.1 |
| 20260905142540 | 80 | 320 | 0.0 | 0.0 | 0.00 | 0.00 | 0.00 | 73 | 1016.1 |
| 20260905142441 | 80 | 345 | 0.0 | 0.0 | 0.00 | 0.00 | 0.00 | 74 | 1016.1 |
| 20260905142317 | 80 | 349 | 0.0 | 0.0 | 0.00 | 0.00 | 0.00 | 74 | 1016.1 |
| 20260905142237 | 80 | 348 | 0.0 | 0.0 | 0.00 | 0.00 | 0.00 | 75 | 1016.2 |
| 20260905142141 | 80 | 360 | 0.0 | 0.0 | 0.00 | 0.00 | 0.00 | 75 | 1016.2 |
| 20260905142046 | 80 | 38 | 0.0 | 0.0 | 0.00 | 0.00 | 0.00 | 76 | 1016.2 |
| 20260905141936 | 79 | 350 | 0.0 | 0.0 | 0.00 | 0.00 | 0.00 | 77 | 1016.1 |
| 20260905141836 | 79 | 350 | 0.0 | 0.0 | 0.00 | 0.00 | 0.00 | 77 | 1016.2 |
| 20260905141729 | 79 | 336 | 0.0 | 0.0 | 0.00 | 0.00 | 0.00 | 77 | 1016.0 |
| 20260905141654 | 79 | 321 | 0.0 | 0.0 | 0.00 | 0.00 | 0.00 | 78 | 1016.1 |
| 20260905141633 | 79 | 321 | 0.0 | 0.0 | 0.00 | 0.00 | 0.00 | 78 | 1016.1 |
| 20260905141431 | 78 | 319 | 0.0 | 0.0 | 0.00 | 0.00 | 0.00 | 79 | 1016.1 |
| 20260905141342 | 78 | 319 | 0.0 | 0.0 | 0.00 | 0.00 | 0.00 | 79 | 1016.1 |
| 20260905141231 | 78 | 340 | 0.0 | 0.0 | 0.00 | 0.00 | 0.00 | 80 | 1016.2 |
| 20260905141136 | 78 | 340 | 0.0 | 0.0 | 0.00 | 0.00 | 0.00 | 80 | 1016.2 |
| 20260905141037 | 78 | 340 | 0.0 | 0.0 | 0.00 | 0.00 | 0.00 | 81 | 1016.2 |
| 20260905140930 | 78 | 340 | 0.0 | 0.0 | 0.00 | 0.00 | 0.00 | 82 | 1016.3 |
| 20260905140845 | 77 | 323 | 0.0 | 0.0 | 0.00 | 0.00 | 0.00 | 82 | 1016.3 |
| 20260905140737 | 77 | 323 | 0.0 | 0.0 | 0.00 | 0.00 | 0.00 | 83 | 1016.3 |
| 20260905140636 | 77 | 312 | 0.0 | 0.0 | 0.00 | 0.00 | 0.00 | 83 | 1016.2 |
| 20260905140544 | 77 | 312 | 0.0 | 0.0 | 0.00 | 0.00 | 0.00 | 84 | 1016.2 |
| 20260905140427 | 76 | 312 | 0.0 | 0.0 | 0.00 | 0.00 | 0.00 | 85 | 1016.1 |
| 20260905140337 | 76 | 312 | 0.0 | 0.0 | 0.00 | 0.00 | 0.00 | 85 | 1016.1 |
| 20260905140247 | 76 | 317 | 0.0 | 0.0 | 0.00 | 0.00 | 0.00 | 86 | 1016.0 |
| 20260905140145 | 76 | 317 | 0.0 | 0.0 | 0.00 | 0.00 | 0.00 | 86 | 1016.0 |
| 20260905135934 | 75 | 317 | 0.0 | 0.0 | 0.00 | 0.00 | 0.00 | 87 | 1016.1 |
| 20260905135829 | 75 | 315 | 0.0 | 0.0 | 0.00 | 0.00 | 0.00 | 87 | 1016.1 |
| 20260905135734 | 75 | 311 | 0.0 | 0.0 | 0.00 | 0.00 | 0.00 | 87 | 1016.1 |
| 20260905135625 | 75 | 311 | 0.0 | 0.0 | 0.00 | 0.00 | 0.00 | 87 | 1016.1 |
| 20260905135527 | 75 | 311 | 0.0 | 0.0 | 0.00 | 0.00 | 0.00 | 88 | 1016.1 |
| 20260905135434 | 74 | 311 | 0.0 | 0.0 | 0.00 | 0.00 | 0.00 | 88 | 1016.1 |
| 20260905135347 | 74 | 311 | 0.0 | 0.0 | 0.00 | 0.00 | 0.00 | 88 | 1016.3 |
| 20260905135237 | 74 | 311 | 0.0 | 0.0 | 0.00 | 0.00 | 0.00 | 89 | 1016.3 |
| 20260905135136 | 74 | 332 | 0.0 | 0.0 | 0.00 | 0.00 | 0.00 | 89 | 1016.2 |
| 20260905135028 | 74 | 332 | 0.0 | 0.0 | 0.00 | 0.00 | 0.00 | 89 | 1016.3 |
| 20260905134927 | 74 | 332 | 0.0 | 0.0 | 0.00 | 0.00 | 0.00 | 89 | 1016.2 |
| 20260905134850 | 74 | 332 | 0.0 | 0.0 | 0.00 | 0.00 | 0.00 | 89 | 1016.2 |
| 20260905134736 | 73 | 332 | 0.0 | 0.0 | 0.00 | 0.00 | 0.00 | 89 | 1016.2 |
| 20260905134636 | 73 | 332 | 0.0 | 0.0 | 0.00 | 0.00 | 0.00 | 89 | 1016.3 |
| 20260905134633 | 73 | 332 | 0.0 | 0.0 | 0.00 | 0.00 | 0.00 | 90 | 1016.2 |
| 20260905134436 | 73 | 334 | 0.0 | 0.0 | 0.00 | 0.00 | 0.00 | 90 | 1016.1 |
| 20260905134335 | 73 | 334 | 0.0 | 0.0 | 0.00 | 0.00 | 0.00 | 90 | 1016.1 |
| 20260905134243 | 73 | 334 | 0.0 | 0.0 | 0.00 | 0.00 | 0.00 | 90 | 1016.1 |
| 20260905134137 | 73 | 334 | 0.0 | 0.0 | 0.00 | 0.00 | 0.00 | 90 | 1016.2 |
| 20260905134047 | 73 | 334 | 0.0 | 0.0 | 0.00 | 0.00 | 0.00 | 90 | 1016.2 |
| 20260905133919 | 73 | 334 | 0.0 | 0.0 | 0.00 | 0.00 | 0.00 | 90 | 1016.2 |
| 20260905133820 | 73 | 331 | 0.0 | 0.0 | 0.00 | 0.00 | 0.00 | 90 | 1016.2 |
| 20260905133746 | 72 | 334 | 0.0 | 0.0 | 0.00 | 0.00 | 0.00 | 90 | 1016.1 |
| 20260905133643 | 72 | 337 | 0.0 | 0.0 | 0.00 | 0.00 | 0.00 | 90 | 1016.1 |
| 20260905133532 | 72 | 332 | 0.0 | 0.0 | 0.00 | 0.00 | 0.00 | 91 | 1016.1 |
| 20260905133419 | 72 | 333 | 0.0 | 0.0 | 0.00 | 0.00 | 0.00 | 91 | 1016.1 |
| 20260905133342 | 72 | 360 | 0.0 | 0.0 | 0.00 | 0.00 | 0.00 | 91 | 1016.3 |
| 20260905133236 | 72 | 335 | 0.0 | 0.0 | 0.00 | 0.00 | 0.00 | 91 | 1016.3 |
| 20260905133136 | 72 | 335 | 0.0 | 0.0 | 0.00 | 0.00 | 0.00 | 91 | 1016.2 |
| 20260905132941 | 72 | 335 | 0.0 | 0.0 | 0.00 | 0.00 | 0.00 | 91 | 1016.3 |
| 20260905132841 | 72 | 322 | 0.0 | 0.0 | 0.00 | 0.00 | 0.00 | 91 | 1016.3 |
| 20260905132736 | 72 | 322 | 0.0 | 0.0 | 0.00 | 0.00 | 0.00 | 91 | 1016.3 |
| 20260905132636 | 72 | 323 | 0.0 | 0.0 | 0.00 | 0.00 | 0.00 | 91 | 1016.3 |
| 20260905132527 | 71 | 342 | 0.0 | 0.0 | 0.00 | 0.00 | 0.00 | 91 | 1016.3 |
| 20260905132429 | 71 | 350 | 0.0 | 0.0 | 0.00 | 0.00 | 0.00 | 91 | 1016.4 |
| 20260905132325 | 71 | 355 | 0.0 | 0.0 | 0.00 | 0.00 | 0.00 | 91 | 1016.4 |
| 20260905132241 | 71 | 344 | 0.0 | 0.0 | 0.00 | 0.00 | 0.00 | 91 | 1016.3 |
| 20260905132140 | 71 | 344 | 0.0 | 0.0 | 0.00 | 0.00 | 0.00 | 91 | 1016.3 |
| 20260905132027 | 71 | 348 | 0.0 | 0.0 | 0.00 | 0.00 | 0.00 | 91 | 1016.4 |
| 20260905131927 | 71 | 360 | 0.0 | 0.0 | 0.00 | 0.00 | 0.00 | 92 | 1016.3 |
| 20260905131830 | 71 | 360 | 0.0 | 0.0 | 0.00 | 0.00 | 0.00 | 92 | 1016.3 |
| 20260905131734 | 71 | 5 | 0.0 | 0.0 | 0.00 | 0.00 | 0.00 | 91 | 1016.2 |
| 20260905131656 | 71 | 5 | 0.0 | 0.0 | 0.00 | 0.00 | 0.00 | 91 | 1016.2 |
| 20260905131629 | 71 | 5 | 0.0 | 0.0 | 0.00 | 0.00 | 0.00 | 91 | 1016.3 |
| 20260905131432 | 70 | 5 | 0.0 | 0.0 | 0.00 | 0.00 | 0.00 | 91 | 1016.2 |
| 20260905131341 | 70 | 18 | 0.0 | 0.0 | 0.00 | 0.00 | 0.00 | 91 | 1016.3 |
| 20260905131230 | 70 | 22 | 0.0 | 0.0 | 0.00 | 0.00 | 0.00 | 91 | 1016.3 |
| 20260905131130 | 70 | 22 | 0.0 | 0.0 | 0.00 | 0.00 | 0.00 | 91 | 1016.3 |
| 20260905131024 | 70 | 24 | 0.0 | 0.0 | 0.00 | 0.00 | 0.00 | 91 | 1016.3 |
| 20260905130933 | 70 | 325 | 0.0 | 0.0 | 0.00 | 0.00 | 0.00 | 91 | 1016.3 |
| 20260905130818 | 70 | 346 | 0.0 | 0.0 | 0.00 | 0.00 | 0.00 | 91 | 1016.3 |
| 20260905130725 | 70 | 345 | 0.0 | 0.0 | 0.00 | 0.00 | 0.00 | 91 | 1016.3 |
| 20260905130644 | 70 | 347 | 0.0 | 0.0 | 0.00 | 0.00 | 0.00 | 91 | 1016.3 |
| 20260905130540 | 70 | 333 | 0.0 | 0.0 | 0.00 | 0.00 | 0.00 | 91 | 1016.3 |
| 20260905130442 | 70 | 327 | 0.0 | 0.0 | 0.00 | 0.00 | 0.00 | 91 | 1016.3 |
| 20260905130348 | 70 | 336 | 0.0 | 0.0 | 0.00 | 0.00 | 0.00 | 91 | 1016.3 |
| 20260905130236 | 70 | 330 | 0.0 | 0.0 | 0.00 | 0.00 | 0.00 | 91 | 1016.3 |
| 20260905130149 | 70 | 342 | 0.0 | 0.0 | 0.00 | 0.00 | 0.00 | 91 | 1016.3 |
| 20260905125926 | 70 | 314 | 0.0 | 0.0 | 0.00 | 0.00 | 0.00 | 91 | 1016.4 |
| 20260905125827 | 70 | 336 | 0.0 | 0.0 | 0.00 | 0.00 | 0.00 | 91 | 1016.4 |
| 20260905125747 | 70 | 340 | 0.0 | 0.0 | 0.00 | 0.00 | 0.00 | 91 | 1016.4 |
| 20260905125635 | 70 | 340 | 0.0 | 0.0 | 0.00 | 0.00 | 0.00 | 91 | 1016.4 |
| 20260905125525 | 70 | 340 | 0.0 | 0.0 | 0.00 | 0.00 | 0.00 | 91 | 1016.4 |
| 20260905125424 | 70 | 340 | 0.0 | 0.0 | 0.00 | 0.00 | 0.00 | 91 | 1016.3 |
| 20260905125336 | 70 | 340 | 0.0 | 0.0 | 0.00 | 0.00 | 0.00 | 91 | 1016.3 |
| 20260905125224 | 70 | 340 | 0.0 | 0.0 | 0.00 | 0.00 | 0.00 | 91 | 1016.3 |
| 20260905125141 | 70 | 333 | 0.0 | 0.0 | 0.00 | 0.00 | 0.00 | 91 | 1016.3 |
| 20260905125040 | 70 | 333 | 0.0 | 0.0 | 0.00 | 0.00 | 0.00 | 91 | 1016.3 |
| 20260905124926 | 70 | 11 | 0.0 | 0.0 | 0.00 | 0.00 | 0.00 | 91 | 1016.3 |
| 20260905124830 | 70 | 344 | 0.0 | 0.0 | 0.00 | 0.00 | 0.00 | 91 | 1016.3 |
| 20260905124730 | 69 | 24 | 0.0 | 0.0 | 0.00 | 0.00 | 0.00 | 91 | 1016.3 |
| 20260905124652 | 69 | 14 | 0.0 | 0.0 | 0.00 | 0.00 | 0.00 | 91 | 1016.4 |
| 20260905124626 | 69 | 355 | 0.0 | 0.0 | 0.00 | 0.00 | 0.00 | 91 | 1016.3 |
| 20260905124434 | 69 | 338 | 0.0 | 0.0 | 0.00 | 0.00 | 0.00 | 91 | 1016.3 |
| 20260905124341 | 69 | 355 | 0.0 | 0.0 | 0.00 | 0.00 | 0.00 | 91 | 1016.3 |
| 20260905124241 | 69 | 355 | 0.0 | 0.0 | 0.00 | 0.00 | 0.00 | 91 | 1016.3 |
| 20260905124128 | 69 | 350 | 0.0 | 0.0 | 0.00 | 0.00 | 0.00 | 91 | 1016.2 |
| 20260905124034 | 69 | 355 | 0.0 | 0.0 | 0.00 | 0.00 | 0.00 | 91 | 1016.2 |
| 20260905123940 | 69 | 355 | 0.0 | 0.0 | 0.00 | 0.00 | 0.00 | 91 | 1016.3 |
| 20260905123841 | 69 | 342 | 0.0 | 0.0 | 0.00 | 0.00 | 0.00 | 91 | 1016.3 |
| 20260905123736 | 69 | 342 | 0.0 | 0.0 | 0.00 | 0.00 | 0.00 | 91 | 1016.2 |
| 20260905123646 | 69 | 344 | 0.0 | 0.0 | 0.00 | 0.00 | 0.00 | 91 | 1016.3 |
| 20260905123540 | 69 | 344 | 0.0 | 0.0 | 0.00 | 0.00 | 0.00 | 91 | 1016.3 |
| 20260905123436 | 69 | 344 | 0.0 | 0.0 | 0.00 | 0.00 | 0.00 | 91 | 1016.2 |
| 20260905123329 | 69 | 344 | 0.0 | 0.0 | 0.00 | 0.00 | 0.00 | 91 | 1016.2 |
| 20260905123241 | 69 | 342 | 0.0 | 0.0 | 0.00 | 0.00 | 0.00 | 91 | 1016.3 |
| 20260905123149 | 69 | 338 | 0.0 | 0.0 | 0.00 | 0.00 | 0.00 | 90 | 1016.2 |
| 20260905123116 | 69 | 338 | 0.0 | 0.0 | 0.00 | 0.00 | 0.00 | 90 | 1016.2 |
| 20260905122940 | 69 | 343 | 0.0 | 0.0 | 0.00 | 0.00 | 0.00 | 90 | 1016.2 |
| 20260905122827 | 69 | 340 | 0.0 | 0.0 | 0.00 | 0.00 | 0.00 | 90 | 1016.1 |
| 20260905122736 | 69 | 340 | 0.0 | 0.0 | 0.00 | 0.00 | 0.00 | 90 | 1016.2 |
| 20260905122630 | 69 | 340 | 0.0 | 0.0 | 0.00 | 0.00 | 0.00 | 90 | 1016.2 |
| 20260905122541 | 69 | 340 | 0.0 | 0.0 | 0.00 | 0.00 | 0.00 | 90 | 1016.2 |
| 20260905122442 | 69 | 340 | 0.0 | 0.0 | 0.00 | 0.00 | 0.00 | 90 | 1016.1 |
| 20260905122323 | 69 | 336 | 0.0 | 0.0 | 0.00 | 0.00 | 0.00 | 90 | 1016.1 |
| 20260905122240 | 69 | 336 | 0.0 | 0.0 | 0.00 | 0.00 | 0.00 | 90 | 1016.1 |
| 20260905122125 | 69 | 336 | 0.0 | 0.0 | 0.00 | 0.00 | 0.00 | 90 | 1016.2 |
| 20260905122025 | 69 | 351 | 0.0 | 0.0 | 0.00 | 0.00 | 0.00 | 90 | 1016.1 |
| 20260905121918 | 69 | 336 | 0.0 | 0.0 | 0.00 | 0.00 | 0.00 | 90 | 1016.1 |
| 20260905121733 | 69 | 346 | 0.0 | 0.0 | 0.00 | 0.00 | 0.00 | 90 | 1016.0 |
| 20260905121654 | 69 | 25 | 0.0 | 0.0 | 0.00 | 0.00 | 0.00 | 90 | 1016.1 |
| 20260905121617 | 69 | 25 | 0.0 | 0.0 | 0.00 | 0.00 | 0.00 | 90 | 1016.0 |
| 20260905121435 | 69 | 52 | 0.0 | 0.0 | 0.00 | 0.00 | 0.00 | 90 | 1016.0 |
| 20260905121331 | 69 | 346 | 0.0 | 0.0 | 0.00 | 0.00 | 0.00 | 90 | 1015.9 |
| 20260905121242 | 69 | 13 | 0.0 | 0.0 | 0.00 | 0.00 | 0.00 | 90 | 1015.9 |
| 20260905121140 | 69 | 355 | 0.0 | 0.0 | 0.00 | 0.00 | 0.00 | 90 | 1015.9 |
| 20260905121028 | 69 | 51 | 0.0 | 0.0 | 0.00 | 0.00 | 0.00 | 90 | 1015.9 |
| 20260905120930 | 68 | 331 | 0.0 | 0.0 | 0.00 | 0.00 | 0.00 | 90 | 1015.9 |
| 20260905120843 | 69 | 344 | 0.0 | 0.0 | 0.00 | 0.00 | 0.00 | 90 | 1015.9 |
| 20260905120726 | 68 | 344 | 0.0 | 0.0 | 0.00 | 0.00 | 0.00 | 90 | 1015.9 |
| 20260905120642 | 69 | 338 | 0.0 | 0.0 | 0.00 | 0.00 | 0.00 | 90 | 1015.9 |
| 20260905120537 | 68 | 338 | 0.0 | 0.0 | 0.00 | 0.00 | 0.00 | 90 | 1015.9 |
| 20260905120441 | 68 | 340 | 0.0 | 0.0 | 0.00 | 0.00 | 0.00 | 90 | 1015.9 |
| 20260905120326 | 69 | 338 | 0.0 | 0.0 | 0.00 | 0.00 | 0.00 | 90 | 1015.9 |
| 20260905120235 | 69 | 338 | 0.0 | 0.0 | 0.00 | 0.00 | 0.00 | 90 | 1015.9 |
| 20260905120126 | 69 | 337 | 0.0 | 0.0 | 0.00 | 0.00 | 0.00 | 90 | 1015.8 |
| 20260905115936 | 69 | 338 | 0.0 | 0.0 | 0.00 | 0.00 | 0.00 | 90 | 1015.8 |
| 20260905115835 | 69 | 325 | 0.0 | 0.0 | 0.00 | 0.00 | 0.00 | 90 | 1015.9 |
| 20260905115727 | 69 | 339 | 0.0 | 0.0 | 0.00 | 0.00 | 0.00 | 90 | 1015.8 |
| 20260905115646 | 69 | 333 | 0.0 | 0.0 | 0.00 | 0.00 | 0.00 | 90 | 1015.9 |
| 20260905115527 | 69 | 327 | 0.0 | 0.0 | 0.00 | 0.00 | 0.00 | 90 | 1015.8 |
| 20260905115424 | 69 | 327 | 0.0 | 0.0 | 0.00 | 0.00 | 0.00 | 90 | 1015.8 |
| 20260905115324 | 69 | 327 | 0.0 | 0.0 | 0.00 | 0.00 | 0.00 | 90 | 1015.8 |
| 20260905115235 | 69 | 327 | 0.0 | 0.0 | 0.00 | 0.00 | 0.00 | 90 | 1015.8 |
| 20260905115121 | 69 | 329 | 0.0 | 0.0 | 0.00 | 0.00 | 0.00 | 90 | 1015.8 |
| 20260905115043 | 69 | 349 | 0.0 | 0.0 | 0.00 | 0.00 | 0.00 | 90 | 1015.8 |
| 20260905114924 | 69 | 340 | 0.0 | 0.0 | 0.00 | 0.00 | 0.00 | 90 | 1015.8 |
| 20260905114828 | 69 | 5 | 0.0 | 0.0 | 0.00 | 0.00 | 0.00 | 90 | 1015.8 |
| 20260905114744 | 69 | 346 | 0.0 | 0.0 | 0.00 | 0.00 | 0.00 | 90 | 1015.8 |
| 20260905114643 | 69 | 346 | 0.0 | 0.0 | 0.00 | 0.00 | 0.00 | 90 | 1015.8 |
| 20260905114425 | 69 | 346 | 0.0 | 0.0 | 0.00 | 0.00 | 0.00 | 90 | 1015.8 |
| 20260905114327 | 69 | 345 | 0.0 | 0.0 | 0.00 | 0.00 | 0.00 | 89 | 1015.8 |
| 20260905114234 | 69 | 346 | 0.0 | 0.0 | 0.00 | 0.00 | 0.00 | 89 | 1015.7 |
| 20260905114135 | 69 | 346 | 0.0 | 0.0 | 0.00 | 0.00 | 0.00 | 89 | 1015.8 |
| 20260905114039 | 69 | 346 | 0.0 | 0.0 | 0.00 | 0.00 | 0.00 | 89 | 1015.7 |
| 20260905113947 | 69 | 346 | 0.0 | 0.0 | 0.00 | 0.00 | 0.00 | 89 | 1015.7 |
| 20260905113848 | 69 | 346 | 0.0 | 0.0 | 0.00 | 0.00 | 0.00 | 89 | 1015.6 |
| 20260905113735 | 69 | 346 | 0.0 | 0.0 | 0.00 | 0.00 | 0.00 | 89 | 1015.8 |
| 20260905113647 | 69 | 345 | 0.0 | 0.0 | 0.00 | 0.00 | 0.00 | 89 | 1015.7 |
| 20260905113531 | 69 | 345 | 0.0 | 0.0 | 0.00 | 0.00 | 0.00 | 89 | 1015.6 |
| 20260905113430 | 69 | 345 | 0.0 | 0.0 | 0.00 | 0.00 | 0.00 | 89 | 1015.6 |
| 20260905113327 | 69 | 345 | 0.0 | 0.0 | 0.00 | 0.00 | 0.00 | 89 | 1015.6 |
| 20260905113241 | 69 | 345 | 0.0 | 0.0 | 0.00 | 0.00 | 0.00 | 89 | 1015.7 |
| 20260905113200 | 69 | 345 | 0.0 | 0.0 | 0.00 | 0.00 | 0.00 | 89 | 1015.6 |
| 20260905113157 | 69 | 345 | 0.0 | 0.0 | 0.00 | 0.00 | 0.00 | 89 | 1015.6 |
| 20260905112929 | 69 | 345 | 0.0 | 0.0 | 0.00 | 0.00 | 0.00 | 89 | 1015.6 |
| 20260905112837 | 69 | 346 | 0.0 | 0.0 | 0.00 | 0.00 | 0.00 | 89 | 1015.6 |
| 20260905112724 | 69 | 345 | 0.0 | 0.0 | 0.00 | 0.00 | 0.00 | 89 | 1015.5 |
| 20260905112636 | 69 | 345 | 0.0 | 0.0 | 0.00 | 0.00 | 0.00 | 89 | 1015.6 |
| 20260905112526 | 69 | 345 | 0.0 | 0.0 | 0.00 | 0.00 | 0.00 | 89 | 1015.5 |
| 20260905112434 | 69 | 346 | 0.0 | 0.0 | 0.00 | 0.00 | 0.00 | 89 | 1015.5 |
| 20260905112326 | 69 | 345 | 0.0 | 0.0 | 0.00 | 0.00 | 0.00 | 89 | 1015.6 |
| 20260905112245 | 69 | 345 | 0.0 | 0.0 | 0.00 | 0.00 | 0.00 | 89 | 1015.5 |
| 20260905112127 | 69 | 346 | 0.0 | 0.0 | 0.00 | 0.00 | 0.00 | 89 | 1015.5 |
| 20260905112047 | 69 | 346 | 0.0 | 0.0 | 0.00 | 0.00 | 0.00 | 89 | 1015.5 |
| 20260905111935 | 69 | 345 | 0.0 | 0.0 | 0.00 | 0.00 | 0.00 | 89 | 1015.5 |
| 20260905111820 | 69 | 345 | 0.0 | 0.0 | 0.00 | 0.00 | 0.00 | 89 | 1015.5 |
| 20260905111727 | 69 | 345 | 0.0 | 0.0 | 0.00 | 0.00 | 0.00 | 89 | 1015.5 |
| 20260905111647 | 69 | 345 | 0.0 | 0.0 | 0.00 | 0.00 | 0.00 | 89 | 1015.5 |
| 20260905111448 | 69 | 345 | 0.0 | 0.0 | 0.00 | 0.00 | 0.00 | 89 | 1015.4 |
| 20260905111336 | 69 | 344 | 0.0 | 0.0 | 0.00 | 0.00 | 0.00 | 89 | 1015.4 |
| 20260905111242 | 69 | 338 | 0.0 | 0.0 | 0.00 | 0.00 | 0.00 | 89 | 1015.4 |
| 20260905111147 | 69 | 340 | 0.0 | 0.0 | 0.00 | 0.00 | 0.00 | 89 | 1015.4 |
| 20260905111031 | 69 | 340 | 0.0 | 0.0 | 0.00 | 0.00 | 0.00 | 89 | 1015.3 |
| 20260905110920 | 69 | 340 | 0.0 | 0.0 | 0.00 | 0.00 | 0.00 | 89 | 1015.2 |
| 20260905110836 | 69 | 338 | 0.0 | 0.0 | 0.00 | 0.00 | 0.00 | 89 | 1015.3 |
| 20260905110726 | 69 | 342 | 0.0 | 0.0 | 0.00 | 0.00 | 0.00 | 89 | 1015.3 |
| 20260905110639 | 69 | 342 | 0.0 | 0.0 | 0.00 | 0.00 | 0.00 | 89 | 1015.1 |
| 20260905110547 | 69 | 342 | 0.0 | 0.0 | 0.00 | 0.00 | 0.00 | 89 | 1015.1 |
| 20260905110437 | 69 | 342 | 0.0 | 0.0 | 0.00 | 0.00 | 0.00 | 89 | 1015.2 |
| 20260905110342 | 69 | 342 | 0.0 | 0.0 | 0.00 | 0.00 | 0.00 | 89 | 1015.0 |
| 20260905110256 | 69 | 342 | 0.0 | 0.0 | 0.00 | 0.00 | 0.00 | 89 | 1015.0 |
| 20260905110155 | 69 | 355 | 0.0 | 0.0 | 0.00 | 0.00 | 0.00 | 89 | 1015.0 |
| 20260905110125 | 69 | 355 | 0.0 | 0.0 | 0.00 | 0.00 | 0.00 | 89 | 1015.0 |
| 20260905105940 | 69 | 355 | 0.0 | 0.0 | 0.00 | 0.00 | 0.00 | 89 | 1015.0 |
| 20260905105843 | 69 | 23 | 0.0 | 0.0 | 0.00 | 0.00 | 0.00 | 89 | 1015.0 |
| 20260905105737 | 69 | 23 | 0.0 | 0.0 | 0.00 | 0.00 | 0.00 | 89 | 1015.0 |
| 20260905105637 | 69 | 23 | 0.0 | 0.0 | 0.00 | 0.00 | 0.00 | 88 | 1015.1 |
| 20260905105520 | 69 | 23 | 0.0 | 0.0 | 0.00 | 0.00 | 0.00 | 88 | 1015.0 |
| 20260905105430 | 69 | 23 | 0.0 | 0.0 | 0.00 | 0.00 | 0.00 | 88 | 1014.9 |
| 20260905105337 | 69 | 23 | 0.0 | 0.0 | 0.00 | 0.00 | 0.00 | 88 | 1015.0 |
| 20260905105237 | 70 | 23 | 0.0 | 0.0 | 0.00 | 0.00 | 0.00 | 88 | 1014.9 |
| 20260905105128 | 70 | 23 | 0.0 | 0.0 | 0.00 | 0.00 | 0.00 | 88 | 1015.0 |
| 20260905105031 | 70 | 23 | 0.0 | 0.0 | 0.00 | 0.00 | 0.00 | 88 | 1015.0 |
| 20260905104948 | 70 | 23 | 0.0 | 0.0 | 0.00 | 0.00 | 0.00 | 88 | 1015.0 |
| 20260905104829 | 70 | 15 | 0.0 | 0.0 | 0.00 | 0.00 | 0.00 | 88 | 1015.0 |
| 20260905104727 | 70 | 17 | 0.0 | 0.0 | 0.00 | 0.00 | 0.00 | 88 | 1015.0 |
| 20260905104629 | 70 | 17 | 0.0 | 0.0 | 0.00 | 0.00 | 0.00 | 88 | 1015.1 |
| 20260905104435 | 70 | 355 | 0.0 | 0.0 | 0.00 | 0.00 | 0.00 | 89 | 1015.0 |
| 20260905104324 | 70 | 336 | 0.0 | 0.0 | 0.00 | 0.00 | 0.00 | 89 | 1015.0 |
| 20260905104229 | 70 | 336 | 0.0 | 0.0 | 0.00 | 0.00 | 0.00 | 89 | 1015.0 |
| 20260905104119 | 70 | 350 | 0.0 | 0.0 | 0.00 | 0.00 | 0.00 | 88 | 1015.0 |
| 20260905104039 | 70 | 336 | 0.0 | 0.0 | 0.00 | 0.00 | 0.00 | 88 | 1015.0 |
| 20260905103935 | 70 | 296 | 0.0 | 0.0 | 0.00 | 0.00 | 0.00 | 88 | 1014.9 |
| 20260905103835 | 70 | 276 | 0.0 | 0.0 | 0.00 | 0.00 | 0.00 | 88 | 1014.9 |
| 20260905103730 | 70 | 276 | 0.0 | 0.0 | 0.00 | 0.00 | 0.00 | 88 | 1014.9 |
| 20260905103629 | 70 | 276 | 0.0 | 0.0 | 0.00 | 0.00 | 0.00 | 88 | 1014.9 |
| 20260905103523 | 70 | 276 | 0.0 | 0.0 | 0.00 | 0.00 | 0.00 | 88 | 1014.9 |
| 20260905103445 | 70 | 276 | 0.0 | 0.0 | 0.00 | 0.00 | 0.00 | 88 | 1014.9 |
| 20260905103325 | 70 | 276 | 0.0 | 0.0 | 0.00 | 0.00 | 0.00 | 88 | 1014.9 |
| 20260905103237 | 70 | 276 | 0.0 | 0.0 | 0.00 | 0.00 | 0.00 | 88 | 1014.9 |
| 20260905103220 | 70 | 276 | 0.0 | 0.0 | 0.00 | 0.00 | 0.00 | 88 | 1014.8 |
| 20260905103121 | 70 | 276 | 0.0 | 0.0 | 0.00 | 0.00 | 0.00 | 88 | 1014.9 |
| 20260905102923 | 70 | 276 | 0.0 | 0.0 | 0.00 | 0.00 | 0.00 | 88 | 1014.9 |
| 20260905102840 | 70 | 276 | 0.0 | 0.0 | 0.00 | 0.00 | 0.00 | 88 | 1014.8 |
| 20260905102736 | 70 | 276 | 0.0 | 0.0 | 0.00 | 0.00 | 0.00 | 88 | 1014.9 |
| 20260905102630 | 70 | 276 | 0.0 | 0.0 | 0.00 | 0.00 | 0.00 | 88 | 1014.8 |
| 20260905102536 | 70 | 276 | 0.0 | 0.0 | 0.00 | 0.00 | 0.00 | 88 | 1014.8 |
| 20260905102434 | 70 | 276 | 0.0 | 0.0 | 0.00 | 0.00 | 0.00 | 88 | 1014.8 |
| 20260905102325 | 70 | 276 | 0.0 | 0.0 | 0.00 | 0.00 | 0.00 | 88 | 1014.7 |
| 20260905102241 | 70 | 144 | 0.0 | 0.0 | 0.00 | 0.00 | 0.00 | 88 | 1014.7 |
| 20260905102145 | 70 | 144 | 0.0 | 0.0 | 0.00 | 0.00 | 0.00 | 88 | 1014.7 |
| 20260905102024 | 70 | 144 | 0.0 | 0.0 | 0.00 | 0.00 | 0.00 | 88 | 1014.7 |
| 20260905101923 | 70 | 144 | 0.0 | 0.0 | 0.00 | 0.00 | 0.00 | 88 | 1014.7 |
| 20260905101822 | 70 | 144 | 0.0 | 0.0 | 0.00 | 0.00 | 0.00 | 88 | 1014.7 |
| 20260905101736 | 70 | 144 | 0.0 | 0.0 | 0.00 | 0.00 | 0.00 | 88 | 1014.7 |
| 20260905101657 | 70 | 144 | 0.0 | 0.0 | 0.00 | 0.00 | 0.00 | 88 | 1014.7 |
| 20260905101441 | 70 | 144 | 0.0 | 0.0 | 0.00 | 0.00 | 0.00 | 88 | 1014.7 |
| 20260905101336 | 70 | 144 | 0.0 | 0.0 | 0.00 | 0.00 | 0.00 | 88 | 1014.7 |
| 20260905101241 | 70 | 144 | 0.0 | 0.0 | 0.00 | 0.00 | 0.00 | 88 | 1014.7 |
| 20260905101141 | 70 | 144 | 0.0 | 0.0 | 0.00 | 0.00 | 0.00 | 88 | 1014.7 |
| 20260905101044 | 70 | 144 | 0.0 | 0.0 | 0.00 | 0.00 | 0.00 | 88 | 1014.6 |
| 20260905100942 | 70 | 144 | 0.0 | 0.0 | 0.00 | 0.00 | 0.00 | 88 | 1014.7 |
| 20260905100839 | 70 | 144 | 0.0 | 0.0 | 0.00 | 0.00 | 0.00 | 88 | 1014.7 |
| 20260905100736 | 70 | 144 | 0.0 | 0.0 | 0.00 | 0.00 | 0.00 | 88 | 1014.7 |
| 20260905100642 | 70 | 144 | 0.0 | 0.0 | 0.00 | 0.00 | 0.00 | 88 | 1014.6 |
| 20260905100540 | 70 | 144 | 0.0 | 0.0 | 0.00 | 0.00 | 0.00 | 88 | 1014.7 |
| 20260905100430 | 70 | 144 | 0.0 | 0.0 | 0.00 | 0.00 | 0.00 | 88 | 1014.7 |
| 20260905100331 | 70 | 144 | 0.0 | 0.0 | 0.00 | 0.00 | 0.00 | 88 | 1014.7 |
| 20260905100259 | 70 | 144 | 0.0 | 0.0 | 0.00 | 0.00 | 0.00 | 88 | 1014.7 |
| 20260905100219 | 70 | 144 | 0.0 | 0.0 | 0.00 | 0.00 | 0.00 | 88 | 1014.6 |
| 20260905095936 | 70 | 144 | 0.0 | 0.0 | 0.00 | 0.00 | 0.00 | 88 | 1014.7 |
| 20260905095827 | 70 | 144 | 0.0 | 0.0 | 0.00 | 0.00 | 0.00 | 88 | 1014.8 |
| 20260905095724 | 70 | 144 | 0.0 | 0.0 | 0.00 | 0.00 | 0.00 | 88 | 1014.7 |
| 20260905095643 | 70 | 144 | 0.0 | 0.0 | 0.00 | 0.00 | 0.00 | 88 | 1014.7 |
| 20260905095541 | 71 | 144 | 0.0 | 0.0 | 0.00 | 0.00 | 0.00 | 88 | 1014.7 |
| 20260905095429 | 70 | 144 | 0.0 | 0.0 | 0.00 | 0.00 | 0.00 | 88 | 1014.7 |
| 20260905095324 | 71 | 144 | 0.0 | 0.0 | 0.00 | 0.00 | 0.00 | 88 | 1014.6 |
| 20260905095237 | 70 | 144 | 0.0 | 0.0 | 0.00 | 0.00 | 0.00 | 88 | 1014.7 |
| 20260905095120 | 70 | 144 | 0.0 | 0.0 | 0.00 | 0.00 | 0.00 | 88 | 1014.6 |
| 20260905095027 | 71 | 144 | 0.0 | 0.0 | 0.00 | 0.00 | 0.00 | 88 | 1014.5 |
| 20260905094947 | 71 | 144 | 0.0 | 0.0 | 0.00 | 0.00 | 0.00 | 88 | 1014.6 |
| 20260905094835 | 71 | 144 | 0.0 | 0.0 | 0.00 | 0.00 | 0.00 | 88 | 1014.6 |
| 20260905094736 | 71 | 144 | 0.0 | 0.0 | 0.00 | 0.00 | 0.00 | 88 | 1014.6 |
| 20260905094700 | 71 | 144 | 0.0 | 0.0 | 0.00 | 0.00 | 0.00 | 88 | 1014.6 |
| 20260905094433 | 71 | 144 | 0.0 | 0.0 | 0.00 | 0.00 | 0.00 | 88 | 1014.6 |
| 20260905094336 | 71 | 144 | 0.0 | 0.0 | 0.00 | 0.00 | 0.00 | 88 | 1014.6 |
| 20260905094236 | 71 | 144 | 0.0 | 0.0 | 0.00 | 0.00 | 0.00 | 88 | 1014.7 |
| 20260905094133 | 71 | 144 | 0.0 | 0.0 | 0.00 | 0.00 | 0.00 | 88 | 1014.6 |
| 20260905094044 | 71 | 145 | 0.0 | 0.0 | 0.00 | 0.00 | 0.00 | 88 | 1014.7 |
| 20260905093933 | 71 | 144 | 0.0 | 0.0 | 0.00 | 0.00 | 0.00 | 88 | 1014.7 |
| 20260905093844 | 71 | 145 | 0.0 | 0.0 | 0.00 | 0.00 | 0.00 | 88 | 1014.7 |
| 20260905093721 | 71 | 146 | 0.0 | 0.0 | 0.00 | 0.00 | 0.00 | 88 | 1014.7 |
| 20260905093644 | 71 | 146 | 0.0 | 0.0 | 0.00 | 0.00 | 0.00 | 88 | 1014.7 |
| 20260905093528 | 71 | 146 | 0.0 | 0.0 | 0.00 | 0.00 | 0.00 | 88 | 1014.7 |
| 20260905093440 | 71 | 146 | 0.0 | 0.0 | 0.00 | 0.00 | 0.00 | 88 | 1014.7 |
| 20260905093341 | 71 | 145 | 0.0 | 0.0 | 0.00 | 0.00 | 0.00 | 88 | 1014.7 |
| 20260905093241 | 71 | 145 | 0.0 | 0.0 | 0.00 | 0.00 | 0.00 | 88 | 1014.8 |
| 20260905093206 | 71 | 146 | 0.0 | 0.0 | 0.00 | 0.00 | 0.00 | 88 | 1014.7 |
| 20260905093109 | 71 | 146 | 0.0 | 0.0 | 0.00 | 0.00 | 0.00 | 88 | 1014.7 |
| 20260905092931 | 71 | 146 | 0.0 | 0.0 | 0.00 | 0.00 | 0.00 | 88 | 1014.8 |
| 20260905092822 | 71 | 146 | 0.0 | 0.0 | 0.00 | 0.00 | 0.00 | 88 | 1014.8 |
| 20260905092735 | 71 | 146 | 0.0 | 0.0 | 0.00 | 0.00 | 0.00 | 88 | 1014.8 |
| 20260905092632 | 71 | 146 | 0.0 | 0.0 | 0.00 | 0.00 | 0.00 | 88 | 1014.8 |
| 20260905092538 | 71 | 146 | 0.0 | 0.0 | 0.00 | 0.00 | 0.00 | 88 | 1014.9 |
| 20260905092420 | 71 | 146 | 0.0 | 0.0 | 0.00 | 0.00 | 0.00 | 88 | 1014.9 |
| 20260905092325 | 71 | 146 | 0.0 | 0.0 | 0.00 | 0.00 | 0.00 | 88 | 1014.8 |
| 20260905092224 | 71 | 146 | 0.0 | 0.0 | 0.00 | 0.00 | 0.00 | 88 | 1014.8 |
| 20260905092127 | 71 | 146 | 0.0 | 0.0 | 0.00 | 0.00 | 0.00 | 88 | 1014.8 |
| 20260905092036 | 71 | 146 | 0.0 | 0.0 | 0.00 | 0.00 | 0.00 | 88 | 1014.9 |
| 20260905091943 | 71 | 146 | 0.0 | 0.0 | 0.00 | 0.00 | 0.00 | 88 | 1014.9 |
| 20260905091846 | 71 | 146 | 0.0 | 0.0 | 0.00 | 0.00 | 0.00 | 88 | 1014.8 |
| 20260905091736 | 71 | 146 | 0.0 | 0.0 | 0.00 | 0.00 | 0.00 | 88 | 1014.8 |
| 20260905091644 | 71 | 146 | 0.0 | 0.0 | 0.00 | 0.00 | 0.00 | 88 | 1014.9 |
| 20260905091604 | 71 | 146 | 0.0 | 0.0 | 0.00 | 0.00 | 0.00 | 87 | 1014.8 |
| 20260905091446 | 71 | 146 | 0.0 | 0.0 | 0.00 | 0.00 | 0.00 | 88 | 1014.9 |
| 20260905091322 | 71 | 146 | 0.0 | 0.0 | 0.00 | 0.00 | 0.00 | 88 | 1014.9 |
| 20260905091241 | 71 | 146 | 0.0 | 0.0 | 0.00 | 0.00 | 0.00 | 87 | 1014.9 |
| 20260905091141 | 71 | 146 | 0.0 | 0.0 | 0.00 | 0.00 | 0.00 | 87 | 1014.9 |
| 20260905091044 | 71 | 145 | 0.0 | 0.0 | 0.00 | 0.00 | 0.00 | 87 | 1014.9 |
| 20260905090924 | 71 | 145 | 0.0 | 0.0 | 0.00 | 0.00 | 0.00 | 88 | 1014.9 |
| 20260905090840 | 71 | 145 | 0.0 | 0.0 | 0.00 | 0.00 | 0.00 | 88 | 1014.9 |
| 20260905090737 | 71 | 145 | 0.0 | 0.0 | 0.00 | 0.00 | 0.00 | 87 | 1014.9 |
| 20260905090624 | 71 | 146 | 0.0 | 0.0 | 0.00 | 0.00 | 0.00 | 88 | 1014.9 |
| 20260905090527 | 71 | 146 | 0.0 | 0.0 | 0.00 | 0.00 | 0.00 | 87 | 1014.9 |
| 20260905090427 | 71 | 146 | 0.0 | 0.0 | 0.00 | 0.00 | 0.00 | 87 | 1014.9 |
| 20260905090324 | 71 | 146 | 0.0 | 0.0 | 0.00 | 0.00 | 0.00 | 87 | 1014.9 |
| 20260905090258 | 71 | 146 | 0.0 | 0.0 | 0.00 | 0.00 | 0.00 | 87 | 1014.9 |
| 20260905090222 | 71 | 146 | 0.0 | 0.0 | 0.00 | 0.00 | 0.00 | 87 | 1015.0 |
| 20260905090135 | 71 | 146 | 0.0 | 0.0 | 0.00 | 0.00 | 0.00 | 87 | 1014.9 |
| 20260905085936 | 71 | 146 | 0.0 | 0.0 | 0.00 | 0.00 | 0.00 | 87 | 1014.9 |
| 20260905085822 | 71 | 146 | 0.0 | 0.0 | 0.00 | 0.00 | 0.00 | 87 | 1014.9 |
| 20260905085729 | 71 | 146 | 0.0 | 0.0 | 0.00 | 0.00 | 0.00 | 87 | 1015.0 |
| 20260905085629 | 71 | 146 | 0.0 | 0.0 | 0.00 | 0.00 | 0.00 | 87 | 1014.9 |
| 20260905085525 | 71 | 146 | 0.0 | 0.0 | 0.00 | 0.00 | 0.00 | 87 | 1015.0 |
| 20260905085425 | 71 | 146 | 0.0 | 0.0 | 0.00 | 0.00 | 0.00 | 87 | 1015.0 |
| 20260905085340 | 71 | 146 | 0.0 | 0.0 | 0.00 | 0.00 | 0.00 | 87 | 1015.0 |
| 20260905085230 | 71 | 146 | 0.0 | 0.0 | 0.00 | 0.00 | 0.00 | 87 | 1015.1 |
| 20260905085127 | 71 | 146 | 0.0 | 0.0 | 0.00 | 0.00 | 0.00 | 88 | 1015.0 |
| 20260905085024 | 71 | 146 | 0.0 | 0.0 | 0.00 | 0.00 | 0.00 | 88 | 1015.1 |
| 20260905084925 | 71 | 146 | 0.0 | 0.0 | 0.00 | 0.00 | 0.00 | 88 | 1015.1 |
| 20260905084829 | 71 | 146 | 0.0 | 0.0 | 0.00 | 0.00 | 0.00 | 88 | 1015.1 |
| 20260905084730 | 71 | 146 | 0.0 | 0.0 | 0.00 | 0.00 | 0.00 | 87 | 1015.1 |
| 20260905084715 | 71 | 146 | 0.0 | 0.0 | 0.00 | 0.00 | 0.00 | 87 | 1015.1 |
| 20260905084436 | 71 | 146 | 0.0 | 0.0 | 0.00 | 0.00 | 0.00 | 88 | 1015.1 |
| 20260905084347 | 71 | 146 | 0.0 | 0.0 | 0.00 | 0.00 | 0.00 | 87 | 1015.1 |
| 20260905084232 | 71 | 5 | 0.0 | 0.0 | 0.00 | 0.00 | 0.00 | 88 | 1015.1 |
| 20260905084124 | 71 | 5 | 0.0 | 0.0 | 0.00 | 0.00 | 0.00 | 87 | 1015.1 |
| 20260905084021 | 71 | 5 | 0.0 | 0.0 | 0.00 | 0.00 | 0.00 | 87 | 1015.1 |
| 20260905083947 | 71 | 5 | 0.0 | 0.0 | 0.00 | 0.00 | 0.00 | 87 | 1015.1 |
| 20260905083835 | 71 | 5 | 0.0 | 0.0 | 0.00 | 0.00 | 0.00 | 87 | 1015.1 |
| 20260905083733 | 71 | 5 | 0.0 | 0.0 | 0.00 | 0.00 | 0.00 | 87 | 1015.1 |
| 20260905083619 | 71 | 5 | 0.0 | 0.0 | 0.00 | 0.00 | 0.00 | 87 | 1015.1 |
| 20260905083550 | 71 | 5 | 0.0 | 0.0 | 0.00 | 0.00 | 0.00 | 87 | 1015.1 |
| 20260905083424 | 71 | 5 | 0.0 | 0.0 | 0.00 | 0.00 | 0.00 | 87 | 1015.1 |
| 20260905083335 | 71 | 5 | 0.0 | 0.0 | 0.00 | 0.00 | 0.00 | 87 | 1015.1 |
| 20260905083236 | 71 | 5 | 0.0 | 0.0 | 0.00 | 0.00 | 0.00 | 87 | 1015.1 |
| 20260905083135 | 71 | 5 | 0.0 | 0.0 | 0.00 | 0.00 | 0.00 | 87 | 1015.1 |
| 20260905082946 | 71 | 5 | 0.0 | 0.0 | 0.00 | 0.00 | 0.00 | 87 | 1015.2 |
| 20260905082837 | 71 | 5 | 0.0 | 0.0 | 0.00 | 0.00 | 0.00 | 87 | 1015.3 |
| 20260905082736 | 71 | 5 | 0.0 | 0.0 | 0.00 | 0.00 | 0.00 | 87 | 1015.2 |
| 20260905082637 | 71 | 5 | 0.0 | 0.0 | 0.00 | 0.00 | 0.00 | 87 | 1015.2 |
| 20260905082536 | 71 | 5 | 0.0 | 0.0 | 0.00 | 0.00 | 0.00 | 87 | 1015.2 |
| 20260905082429 | 71 | 5 | 0.0 | 0.0 | 0.00 | 0.00 | 0.00 | 87 | 1015.2 |
| 20260905082321 | 71 | 5 | 0.0 | 0.0 | 0.00 | 0.00 | 0.00 | 87 | 1015.2 |
| 20260905082246 | 71 | 5 | 0.0 | 0.0 | 0.00 | 0.00 | 0.00 | 87 | 1015.2 |
| 20260905082136 | 71 | 5 | 0.0 | 0.0 | 0.00 | 0.00 | 0.00 | 87 | 1015.2 |
| 20260905082043 | 71 | 5 | 0.0 | 0.0 | 0.00 | 0.00 | 0.00 | 87 | 1015.2 |
| 20260905081936 | 71 | 5 | 0.0 | 0.0 | 0.00 | 0.00 | 0.00 | 87 | 1015.3 |
| 20260905081838 | 71 | 5 | 0.0 | 0.0 | 0.00 | 0.00 | 0.00 | 88 | 1015.3 |
| 20260905081748 | 71 | 5 | 0.0 | 0.0 | 0.00 | 0.00 | 0.00 | 87 | 1015.3 |
| 20260905081648 | 71 | 5 | 0.0 | 0.0 | 0.00 | 0.00 | 0.00 | 88 | 1015.3 |
| 20260905081620 | 71 | 5 | 0.0 | 0.0 | 0.00 | 0.00 | 0.00 | 88 | 1015.3 |
| 20260905081435 | 71 | 12 | 0.0 | 0.0 | 0.00 | 0.00 | 0.00 | 87 | 1015.3 |
| 20260905081335 | 71 | 12 | 0.0 | 0.0 | 0.00 | 0.00 | 0.00 | 87 | 1015.3 |
| 20260905081229 | 71 | 12 | 0.0 | 0.0 | 0.00 | 0.00 | 0.00 | 87 | 1015.3 |
| 20260905081124 | 71 | 12 | 0.0 | 0.0 | 0.00 | 0.00 | 0.00 | 88 | 1015.3 |
| 20260905081027 | 71 | 12 | 0.0 | 0.0 | 0.00 | 0.00 | 0.00 | 87 | 1015.3 |
| 20260905080946 | 71 | 12 | 0.0 | 0.0 | 0.00 | 0.00 | 0.00 | 87 | 1015.3 |
| 20260905080835 | 71 | 12 | 0.0 | 0.0 | 0.00 | 0.00 | 0.00 | 87 | 1015.3 |
| 20260905080723 | 71 | 12 | 0.0 | 0.0 | 0.00 | 0.00 | 0.00 | 87 | 1015.4 |
| 20260905080633 | 71 | 12 | 0.0 | 0.0 | 0.00 | 0.00 | 0.00 | 87 | 1015.4 |
| 20260905080524 | 71 | 12 | 0.0 | 0.0 | 0.00 | 0.00 | 0.00 | 87 | 1015.4 |
| 20260905080435 | 71 | 12 | 0.0 | 0.0 | 0.00 | 0.00 | 0.00 | 87 | 1015.4 |
| 20260905080325 | 71 | 12 | 0.0 | 0.0 | 0.00 | 0.00 | 0.00 | 87 | 1015.4 |
| 20260905080248 | 71 | 19 | 0.0 | 0.0 | 0.00 | 0.00 | 0.00 | 87 | 1015.4 |
| 20260905080148 | 71 | 360 | 0.0 | 0.0 | 0.00 | 0.00 | 0.00 | 87 | 1015.4 |
| 20260905080145 | 71 | 360 | 0.0 | 0.0 | 0.00 | 0.00 | 0.00 | 87 | 1015.4 |
| 20260905075928 | 71 | 355 | 0.0 | 0.0 | 0.00 | 0.00 | 0.00 | 87 | 1015.4 |
| 20260905075836 | 71 | 355 | 0.0 | 0.0 | 0.00 | 0.00 | 0.00 | 87 | 1015.4 |
| 20260905075726 | 71 | 10 | 0.0 | 0.0 | 0.00 | 0.00 | 0.00 | 87 | 1015.4 |
| 20260905075629 | 71 | 329 | 0.0 | 0.0 | 0.00 | 0.00 | 0.00 | 87 | 1015.4 |
| 20260905075524 | 71 | 350 | 0.0 | 0.0 | 0.00 | 0.00 | 0.00 | 87 | 1015.4 |
| 20260905075432 | 71 | 350 | 0.0 | 0.0 | 0.00 | 0.00 | 0.00 | 87 | 1015.4 |
| 20260905075336 | 71 | 350 | 0.0 | 0.0 | 0.00 | 0.00 | 0.00 | 87 | 1015.4 |
| 20260905075227 | 71 | 360 | 0.0 | 0.0 | 0.00 | 0.00 | 0.00 | 87 | 1015.4 |
| 20260905075131 | 71 | 360 | 0.0 | 0.0 | 0.00 | 0.00 | 0.00 | 87 | 1015.4 |
| 20260905075031 | 71 | 19 | 0.0 | 0.0 | 0.00 | 0.00 | 0.00 | 87 | 1015.5 |
| 20260905074923 | 71 | 19 | 0.0 | 0.0 | 0.00 | 0.00 | 0.00 | 87 | 1015.5 |
| 20260905074841 | 71 | 15 | 0.0 | 0.0 | 0.00 | 0.00 | 0.00 | 87 | 1015.5 |
| 20260905074726 | 71 | 17 | 0.0 | 0.0 | 0.00 | 0.00 | 0.00 | 87 | 1015.5 |
| 20260905074717 | 71 | 15 | 0.0 | 0.0 | 0.00 | 0.00 | 0.00 | 87 | 1015.5 |
| 20260905074609 | 71 | 17 | 0.0 | 0.0 | 0.00 | 0.00 | 0.00 | 87 | 1015.5 |
| 20260905074430 | 71 | 28 | 0.0 | 0.0 | 0.00 | 0.00 | 0.00 | 87 | 1015.6 |
| 20260905074341 | 71 | 9 | 0.0 | 0.0 | 0.00 | 0.00 | 0.00 | 87 | 1015.5 |
| 20260905074241 | 71 | 14 | 0.0 | 0.0 | 0.00 | 0.00 | 0.00 | 87 | 1015.5 |
| 20260905074128 | 71 | 20 | 0.0 | 0.0 | 0.00 | 0.00 | 0.00 | 87 | 1015.5 |
| 20260905074023 | 71 | 19 | 0.0 | 0.0 | 0.00 | 0.00 | 0.00 | 87 | 1015.5 |
| 20260905073923 | 72 | 21 | 0.0 | 0.0 | 0.00 | 0.00 | 0.00 | 87 | 1015.5 |
| 20260905073825 | 72 | 30 | 0.0 | 0.0 | 0.00 | 0.00 | 0.00 | 87 | 1015.5 |
| 20260905073742 | 72 | 17 | 0.0 | 0.0 | 0.00 | 0.00 | 0.00 | 87 | 1015.5 |
| 20260905073647 | 72 | 9 | 0.0 | 0.0 | 0.00 | 0.00 | 0.00 | 87 | 1015.5 |
| 20260905073535 | 72 | 360 | 0.0 | 0.0 | 0.00 | 0.00 | 0.00 | 87 | 1015.6 |
| 20260905073424 | 72 | 5 | 0.0 | 0.0 | 0.00 | 0.00 | 0.00 | 87 | 1015.5 |
| 20260905073330 | 72 | 5 | 0.0 | 0.0 | 0.00 | 0.00 | 0.00 | 87 | 1015.6 |
| 20260905073226 | 72 | 5 | 0.0 | 0.0 | 0.00 | 0.00 | 0.00 | 87 | 1015.5 |
| 20260905073202 | 72 | 5 | 0.0 | 0.0 | 0.00 | 0.00 | 0.00 | 87 | 1015.6 |
| 20260905073124 | 72 | 15 | 0.0 | 0.0 | 0.00 | 0.00 | 0.00 | 87 | 1015.6 |
| 20260905072948 | 72 | 15 | 0.0 | 0.0 | 0.00 | 0.00 | 0.00 | 87 | 1015.6 |
| 20260905072825 | 72 | 22 | 0.0 | 0.0 | 0.00 | 0.00 | 0.00 | 87 | 1015.6 |
| 20260905072731 | 72 | 15 | 0.0 | 0.0 | 0.00 | 0.00 | 0.00 | 87 | 1015.6 |
| 20260905072636 | 72 | 15 | 0.0 | 0.0 | 0.00 | 0.00 | 0.00 | 87 | 1015.6 |
| 20260905072535 | 72 | 15 | 0.0 | 0.0 | 0.00 | 0.00 | 0.00 | 87 | 1015.6 |
| 20260905072425 | 72 | 21 | 0.0 | 0.0 | 0.00 | 0.00 | 0.00 | 87 | 1015.6 |
| 20260905072336 | 72 | 22 | 0.0 | 0.0 | 0.00 | 0.00 | 0.00 | 87 | 1015.6 |
| 20260905072248 | 72 | 355 | 0.0 | 0.0 | 0.00 | 0.00 | 0.00 | 87 | 1015.6 |
| 20260905072130 | 72 | 340 | 0.0 | 0.0 | 0.00 | 0.00 | 0.00 | 87 | 1015.6 |
| 20260905072034 | 72 | 344 | 0.0 | 0.0 | 0.00 | 0.00 | 0.00 | 87 | 1015.6 |
| 20260905071947 | 72 | 342 | 0.0 | 0.0 | 0.00 | 0.00 | 0.00 | 86 | 1015.6 |
| 20260905071837 | 72 | 349 | 0.0 | 0.0 | 0.00 | 0.00 | 0.00 | 86 | 1015.6 |
| 20260905071733 | 72 | 349 | 0.0 | 0.0 | 0.00 | 0.00 | 0.00 | 86 | 1015.6 |
| 20260905071644 | 72 | 349 | 0.0 | 0.0 | 0.00 | 0.00 | 0.00 | 86 | 1015.6 |
| 20260905071638 | 72 | 335 | 0.0 | 0.0 | 0.00 | 0.00 | 0.00 | 86 | 1015.6 |
| 20260905071444 | 72 | 345 | 0.0 | 0.0 | 0.00 | 0.00 | 0.00 | 86 | 1015.6 |
| 20260905071341 | 72 | 345 | 0.0 | 0.0 | 0.00 | 0.00 | 0.00 | 87 | 1015.6 |
| 20260905071221 | 72 | 344 | 0.0 | 0.0 | 0.00 | 0.00 | 0.00 | 86 | 1015.6 |
| 20260905071126 | 72 | 336 | 0.0 | 0.0 | 0.00 | 0.00 | 0.00 | 86 | 1015.7 |
| 20260905071029 | 72 | 336 | 0.0 | 0.0 | 0.00 | 0.00 | 0.00 | 87 | 1015.6 |
| 20260905070935 | 72 | 336 | 0.0 | 0.0 | 0.00 | 0.00 | 0.00 | 86 | 1015.7 |
| 20260905070840 | 72 | 335 | 0.0 | 0.0 | 0.00 | 0.00 | 0.00 | 86 | 1015.7 |
| 20260905070724 | 72 | 335 | 0.0 | 0.0 | 0.00 | 0.00 | 0.00 | 86 | 1015.7 |
| 20260905070640 | 72 | 335 | 0.0 | 0.0 | 0.00 | 0.00 | 0.00 | 86 | 1015.7 |
| 20260905070536 | 72 | 335 | 0.0 | 0.0 | 0.00 | 0.00 | 0.00 | 86 | 1015.6 |
| 20260905070425 | 72 | 335 | 0.0 | 0.0 | 0.00 | 0.00 | 0.00 | 86 | 1015.7 |
| 20260905070336 | 72 | 335 | 0.0 | 0.0 | 0.00 | 0.00 | 0.00 | 86 | 1015.7 |
| 20260905070248 | 72 | 335 | 0.0 | 0.0 | 0.00 | 0.00 | 0.00 | 86 | 1015.7 |
| 20260905070204 | 72 | 346 | 0.0 | 0.0 | 0.00 | 0.00 | 0.00 | 86 | 1015.6 |
| 20260905070130 | 72 | 350 | 0.0 | 0.0 | 0.00 | 0.00 | 0.00 | 86 | 1015.7 |
| 20260905065920 | 72 | 335 | 0.0 | 0.0 | 0.00 | 0.00 | 0.00 | 86 | 1015.7 |
| 20260905065734 | 72 | 340 | 0.0 | 0.0 | 0.00 | 0.00 | 0.00 | 86 | 1015.7 |
| 20260905065642 | 72 | 348 | 0.0 | 0.0 | 0.00 | 0.00 | 0.00 | 86 | 1015.8 |
| 20260905065637 | 72 | 355 | 0.0 | 0.0 | 0.00 | 0.00 | 0.00 | 86 | 1015.8 |
| 20260905065420 | 72 | 12 | 0.0 | 0.0 | 0.00 | 0.00 | 0.00 | 86 | 1015.8 |
| 20260905065327 | 72 | 48 | 0.0 | 0.0 | 0.00 | 0.00 | 0.00 | 86 | 1015.8 |
| 20260905065236 | 72 | 360 | 0.0 | 0.0 | 0.00 | 0.00 | 0.00 | 86 | 1015.8 |
| 20260905065130 | 72 | 360 | 0.0 | 0.0 | 0.00 | 0.00 | 0.00 | 86 | 1015.8 |
| 20260905065019 | 72 | 339 | 0.0 | 0.0 | 0.00 | 0.00 | 0.00 | 86 | 1015.8 |
| 20260905064936 | 72 | 339 | 0.0 | 0.0 | 0.00 | 0.00 | 0.00 | 86 | 1015.8 |
| 20260905064841 | 72 | 341 | 0.0 | 0.0 | 0.00 | 0.00 | 0.00 | 86 | 1015.8 |
| 20260905064733 | 72 | 350 | 0.0 | 0.0 | 0.00 | 0.00 | 0.00 | 86 | 1015.9 |
| 20260905064718 | 72 | 355 | 0.0 | 0.0 | 0.00 | 0.00 | 0.00 | 86 | 1015.9 |
| 20260905064627 | 72 | 17 | 0.0 | 0.0 | 0.00 | 0.00 | 0.00 | 86 | 1015.9 |
| 20260905064436 | 72 | 10 | 0.0 | 0.0 | 0.00 | 0.00 | 0.00 | 86 | 1015.9 |
| 20260905064341 | 72 | 16 | 0.0 | 0.0 | 0.00 | 0.00 | 0.00 | 86 | 1015.9 |
| 20260905064236 | 72 | 17 | 0.0 | 0.0 | 0.00 | 0.00 | 0.00 | 86 | 1015.8 |
| 20260905064122 | 72 | 15 | 0.0 | 0.0 | 0.00 | 0.00 | 0.00 | 85 | 1015.9 |
| 20260905064026 | 72 | 15 | 0.0 | 0.0 | 0.00 | 0.00 | 0.00 | 85 | 1015.8 |
| 20260905063936 | 73 | 19 | 0.0 | 0.0 | 0.00 | 0.00 | 0.00 | 85 | 1015.8 |
| 20260905063840 | 73 | 23 | 0.0 | 0.0 | 0.00 | 0.00 | 0.00 | 85 | 1015.8 |
| 20260905063723 | 73 | 343 | 0.0 | 0.0 | 0.00 | 0.00 | 0.00 | 85 | 1015.8 |
| 20260905063636 | 73 | 343 | 0.0 | 0.0 | 0.00 | 0.00 | 0.00 | 85 | 1015.7 |
| 20260905063518 | 73 | 341 | 0.0 | 0.0 | 0.00 | 0.00 | 0.00 | 85 | 1015.8 |
| 20260905063418 | 73 | 348 | 0.0 | 0.0 | 0.00 | 0.00 | 0.00 | 85 | 1015.8 |
| 20260905063331 | 73 | 11 | 0.0 | 0.0 | 0.00 | 0.00 | 0.00 | 85 | 1015.8 |
| 20260905063221 | 73 | 11 | 0.0 | 0.0 | 0.00 | 0.00 | 0.00 | 85 | 1015.8 |
| 20260905063216 | 73 | 340 | 0.0 | 0.0 | 0.00 | 0.00 | 0.00 | 85 | 1015.9 |
| 20260905063102 | 73 | 355 | 0.0 | 0.0 | 0.00 | 0.00 | 0.00 | 85 | 1015.9 |
| 20260905062940 | 73 | 25 | 0.0 | 0.0 | 0.00 | 0.00 | 0.00 | 85 | 1015.9 |
| 20260905062838 | 73 | 16 | 0.0 | 0.0 | 0.00 | 0.00 | 0.00 | 85 | 1015.9 |
| 20260905062722 | 73 | 9 | 0.0 | 0.0 | 0.00 | 0.00 | 0.00 | 85 | 1015.8 |
| 20260905062631 | 73 | 5 | 0.0 | 0.0 | 0.00 | 0.00 | 0.00 | 85 | 1015.9 |
| 20260905062528 | 73 | 22 | 0.0 | 0.0 | 0.00 | 0.00 | 0.00 | 85 | 1015.8 |
| 20260905062427 | 73 | 15 | 0.0 | 0.0 | 0.00 | 0.00 | 0.00 | 85 | 1015.9 |
| 20260905062325 | 73 | 13 | 0.0 | 0.0 | 0.00 | 0.00 | 0.00 | 85 | 1015.9 |
| 20260905062223 | 73 | 15 | 0.0 | 0.0 | 0.00 | 0.00 | 0.00 | 85 | 1015.9 |
| 20260905062117 | 73 | 15 | 0.0 | 0.0 | 0.00 | 0.00 | 0.00 | 85 | 1015.9 |
| 20260905062024 | 73 | 15 | 0.0 | 0.0 | 0.00 | 0.00 | 0.00 | 85 | 1015.9 |
| 20260905061920 | 73 | 16 | 0.0 | 0.0 | 0.00 | 0.00 | 0.00 | 85 | 1015.9 |
| 20260905061841 | 73 | 30 | 0.0 | 0.0 | 0.00 | 0.00 | 0.00 | 84 | 1015.9 |
| 20260905061718 | 73 | 28 | 0.0 | 0.0 | 0.00 | 0.00 | 0.00 | 84 | 1015.9 |
| 20260905061629 | 73 | 5 | 0.0 | 0.0 | 0.00 | 0.00 | 0.00 | 84 | 1016.0 |
| 20260905061626 | 73 | 9 | 0.0 | 0.0 | 0.00 | 0.00 | 0.00 | 84 | 1015.9 |
| 20260905061437 | 73 | 13 | 0.0 | 0.0 | 0.00 | 0.00 | 0.00 | 84 | 1016.0 |
| 20260905061322 | 73 | 26 | 0.0 | 0.0 | 0.00 | 0.00 | 0.00 | 84 | 1016.0 |
| 20260905061221 | 73 | 344 | 0.0 | 0.0 | 0.00 | 0.00 | 0.00 | 84 | 1016.0 |
| 20260905061116 | 73 | 348 | 0.0 | 0.0 | 0.00 | 0.00 | 0.00 | 84 | 1016.0 |
| 20260905061040 | 73 | 347 | 0.0 | 0.0 | 0.00 | 0.00 | 0.00 | 84 | 1016.0 |